| time (UTC) | temp F | wind direction | speed knots | gust knots | rain 1hr in | rain 24hr in | rain mn in | humidity % | barometer mb |
| 20260507140117 | 56 | 166 | 6.1 | 8.7 | 0.00 | 0.00 | 0.00 | 77 | 1015.9 |
| 20260507140017 | 56 | 140 | 7.0 | 7.8 | 0.00 | 0.00 | 0.00 | 76 | 1015.8 |
| 20260507135917 | 57 | 136 | 6.1 | 8.7 | 0.00 | 0.00 | 0.00 | 77 | 1015.9 |
| 20260507135817 | 57 | 160 | 5.2 | 8.7 | 0.00 | 0.00 | 0.00 | 77 | 1015.8 |
| 20260507135717 | 56 | 177 | 5.2 | 7.0 | 0.00 | 0.00 | 0.00 | 77 | 1015.8 |
| 20260507135617 | 56 | 172 | 6.1 | 10.4 | 0.00 | 0.00 | 0.00 | 76 | 1015.9 |
| 20260507135517 | 56 | 147 | 4.3 | 7.8 | 0.00 | 0.00 | 0.00 | 77 | 1015.9 |
| 20260507135417 | 56 | 194 | 6.1 | 7.8 | 0.00 | 0.00 | 0.00 | 76 | 1015.9 |
| 20260507135317 | 56 | 161 | 7.0 | 10.4 | 0.00 | 0.00 | 0.00 | 76 | 1015.9 |
| 20260507135217 | 56 | 167 | 7.0 | 10.4 | 0.00 | 0.00 | 0.00 | 76 | 1015.9 |
| 20260507135117 | 56 | 156 | 6.1 | 8.7 | 0.00 | 0.00 | 0.00 | 76 | 1015.9 |
| 20260507135017 | 57 | 157 | 7.0 | 7.8 | 0.00 | 0.00 | 0.00 | 76 | 1015.9 |
| 20260507134917 | 56 | 163 | 5.2 | 12.2 | 0.00 | 0.00 | 0.00 | 76 | 1015.9 |
| 20260507134817 | 56 | 178 | 5.2 | 7.0 | 0.00 | 0.00 | 0.00 | 76 | 1015.9 |
| 20260507134717 | 56 | 167 | 6.1 | 10.4 | 0.00 | 0.00 | 0.00 | 76 | 1015.9 |
| 20260507134617 | 56 | 168 | 7.0 | 10.4 | 0.00 | 0.00 | 0.00 | 76 | 1015.9 |
| 20260507134516 | 56 | 164 | 7.0 | 8.7 | 0.00 | 0.00 | 0.00 | 77 | 1015.9 |
| 20260507134416 | 56 | 190 | 6.1 | 11.3 | 0.00 | 0.00 | 0.00 | 77 | 1016.0 |
| 20260507134316 | 56 | 165 | 7.0 | 7.8 | 0.00 | 0.00 | 0.00 | 77 | 1016.0 |
| 20260507134216 | 56 | 146 | 7.0 | 10.4 | 0.00 | 0.00 | 0.00 | 77 | 1015.9 |
| 20260507134116 | 56 | 164 | 6.1 | 7.8 | 0.00 | 0.00 | 0.00 | 77 | 1015.9 |
| 20260507134016 | 56 | 167 | 6.1 | 7.8 | 0.00 | 0.00 | 0.00 | 76 | 1016.0 |
| 20260507133916 | 56 | 160 | 6.1 | 8.7 | 0.00 | 0.00 | 0.00 | 76 | 1015.9 |
| 20260507133816 | 56 | 166 | 7.0 | 10.4 | 0.00 | 0.00 | 0.00 | 76 | 1015.9 |
| 20260507133716 | 56 | 173 | 7.0 | 10.4 | 0.00 | 0.00 | 0.00 | 77 | 1015.9 |
| 20260507133616 | 56 | 161 | 7.0 | 10.4 | 0.00 | 0.00 | 0.00 | 77 | 1015.9 |
| 20260507133516 | 56 | 180 | 4.3 | 7.8 | 0.00 | 0.00 | 0.00 | 78 | 1015.9 |
| 20260507133416 | 56 | 177 | 6.1 | 7.8 | 0.00 | 0.00 | 0.00 | 78 | 1015.9 |
| 20260507133316 | 56 | 179 | 5.2 | 8.7 | 0.00 | 0.00 | 0.00 | 79 | 1016.0 |
| 20260507133216 | 56 | 198 | 7.0 | 8.7 | 0.00 | 0.00 | 0.00 | 78 | 1015.9 |
| 20260507133116 | 56 | 124 | 7.0 | 10.4 | 0.00 | 0.00 | 0.00 | 78 | 1016.0 |
| 20260507133016 | 56 | 156 | 7.0 | 10.4 | 0.00 | 0.00 | 0.00 | 78 | 1016.0 |
| 20260507132916 | 56 | 146 | 7.0 | 10.4 | 0.00 | 0.00 | 0.00 | 78 | 1016.0 |
| 20260507132816 | 56 | 160 | 6.1 | 8.7 | 0.00 | 0.00 | 0.00 | 78 | 1016.0 |
| 20260507132646 | 56 | 144 | 6.1 | 11.3 | 0.00 | 0.00 | 0.00 | 78 | 1016.0 |
| 20260507132546 | 56 | 143 | 6.1 | 7.0 | 0.00 | 0.00 | 0.00 | 77 | 1016.0 |
| 20260507132446 | 56 | 139 | 7.0 | 8.7 | 0.00 | 0.00 | 0.00 | 77 | 1016.0 |
| 20260507132346 | 56 | 178 | 6.1 | 8.7 | 0.00 | 0.00 | 0.00 | 78 | 1016.0 |
| 20260507132246 | 56 | 171 | 6.1 | 7.8 | 0.00 | 0.00 | 0.00 | 78 | 1016.0 |
| 20260507132146 | 55 | 173 | 7.0 | 7.8 | 0.00 | 0.00 | 0.00 | 77 | 1016.0 |
| 20260507132016 | 56 | 136 | 7.0 | 8.7 | 0.00 | 0.00 | 0.00 | 76 | 1016.0 |
| 20260507131916 | 56 | 135 | 7.8 | 8.7 | 0.00 | 0.00 | 0.00 | 77 | 1016.0 |
| 20260507131816 | 56 | 139 | 7.0 | 12.2 | 0.00 | 0.00 | 0.00 | 76 | 1016.0 |
| 20260507131716 | 56 | 133 | 5.2 | 8.7 | 0.00 | 0.00 | 0.00 | 77 | 1016.0 |
| 20260507131546 | 56 | 170 | 5.2 | 7.8 | 0.00 | 0.00 | 0.00 | 77 | 1016.1 |
| 20260507131446 | 56 | 164 | 5.2 | 7.8 | 0.00 | 0.00 | 0.00 | 78 | 1016.1 |
| 20260507131316 | 56 | 169 | 5.2 | 7.8 | 0.00 | 0.00 | 0.00 | 78 | 1016.1 |
| 20260507131216 | 56 | 155 | 7.0 | 10.4 | 0.00 | 0.00 | 0.00 | 77 | 1016.1 |
| 20260507131046 | 56 | 152 | 6.1 | 10.4 | 0.00 | 0.00 | 0.00 | 77 | 1016.1 |
| 20260507130916 | 56 | 180 | 4.3 | 8.7 | 0.00 | 0.00 | 0.00 | 77 | 1016.1 |
| 20260507130746 | 56 | 148 | 7.0 | 8.7 | 0.00 | 0.00 | 0.00 | 76 | 1016.1 |
| 20260507130646 | 56 | 167 | 6.1 | 10.4 | 0.00 | 0.00 | 0.00 | 77 | 1016.1 |
| 20260507130546 | 56 | 156 | 6.1 | 7.0 | 0.00 | 0.00 | 0.00 | 77 | 1016.1 |
| 20260507130446 | 56 | 156 | 7.0 | 7.8 | 0.00 | 0.00 | 0.00 | 76 | 1016.1 |
| 20260507130346 | 56 | 131 | 6.1 | 10.4 | 0.00 | 0.00 | 0.00 | 77 | 1016.0 |
| 20260507130216 | 56 | 149 | 5.2 | 7.8 | 0.00 | 0.00 | 0.00 | 77 | 1016.1 |
| 20260507130116 | 56 | 144 | 6.1 | 8.7 | 0.00 | 0.00 | 0.00 | 76 | 1016.1 |
| 20260507130016 | 56 | 153 | 6.1 | 8.7 | 0.00 | 0.00 | 0.00 | 77 | 1016.1 |
| 20260507125916 | 56 | 184 | 5.2 | 6.1 | 0.00 | 0.00 | 0.00 | 77 | 1016.1 |
| 20260507125816 | 56 | 170 | 6.1 | 6.1 | 0.00 | 0.00 | 0.00 | 76 | 1016.1 |
| 20260507125716 | 56 | 166 | 8.7 | 10.4 | 0.00 | 0.00 | 0.00 | 76 | 1016.1 |
| 20260507125546 | 56 | 161 | 5.2 | 7.8 | 0.00 | 0.00 | 0.00 | 76 | 1016.1 |
| 20260507125446 | 56 | 163 | 6.1 | 7.8 | 0.00 | 0.00 | 0.00 | 76 | 1016.1 |
| 20260507125316 | 56 | 155 | 7.0 | 8.7 | 0.00 | 0.00 | 0.00 | 77 | 1016.1 |
| 20260507125216 | 56 | 167 | 6.1 | 10.4 | 0.00 | 0.00 | 0.00 | 78 | 1016.1 |
| 20260507125046 | 56 | 156 | 5.2 | 7.8 | 0.00 | 0.00 | 0.00 | 78 | 1016.1 |
| 20260507124916 | 55 | 176 | 6.1 | 7.8 | 0.00 | 0.00 | 0.00 | 78 | 1016.1 |
| 20260507124746 | 55 | 149 | 7.0 | 11.3 | 0.00 | 0.00 | 0.00 | 78 | 1016.2 |
| 20260507124646 | 55 | 157 | 6.1 | 8.7 | 0.00 | 0.00 | 0.00 | 77 | 1016.1 |
| 20260507124546 | 55 | 149 | 7.0 | 10.4 | 0.00 | 0.00 | 0.00 | 77 | 1016.1 |
| 20260507124446 | 55 | 157 | 7.0 | 10.4 | 0.00 | 0.00 | 0.00 | 77 | 1016.2 |
| 20260507124346 | 56 | 146 | 7.0 | 7.8 | 0.00 | 0.00 | 0.00 | 77 | 1016.2 |
| 20260507124216 | 56 | 131 | 6.1 | 10.4 | 0.00 | 0.00 | 0.00 | 77 | 1016.2 |
| 20260507124116 | 56 | 157 | 7.0 | 8.7 | 0.00 | 0.00 | 0.00 | 77 | 1016.2 |
| 20260507123946 | 56 | 175 | 6.1 | 10.4 | 0.00 | 0.00 | 0.00 | 77 | 1016.2 |
| 20260507123846 | 56 | 146 | 7.0 | 8.7 | 0.00 | 0.00 | 0.00 | 76 | 1016.2 |
| 20260507123746 | 56 | 131 | 7.0 | 10.4 | 0.00 | 0.00 | 0.00 | 76 | 1016.2 |
| 20260507123616 | 56 | 153 | 6.1 | 8.7 | 0.00 | 0.00 | 0.00 | 76 | 1016.2 |
| 20260507123516 | 56 | 161 | 6.1 | 7.8 | 0.00 | 0.00 | 0.00 | 76 | 1016.2 |
| 20260507123346 | 56 | 151 | 6.1 | 7.8 | 0.00 | 0.00 | 0.00 | 76 | 1016.2 |
| 20260507123216 | 56 | 160 | 6.1 | 7.8 | 0.00 | 0.00 | 0.00 | 76 | 1016.2 |
| 20260507123046 | 56 | 157 | 5.2 | 11.3 | 0.00 | 0.00 | 0.00 | 76 | 1016.2 |
| 20260507122916 | 56 | 159 | 6.1 | 7.0 | 0.00 | 0.00 | 0.00 | 76 | 1016.1 |
| 20260507122816 | 56 | 162 | 7.0 | 10.4 | 0.00 | 0.00 | 0.00 | 76 | 1016.2 |
| 20260507122716 | 56 | 170 | 6.1 | 10.4 | 0.00 | 0.00 | 0.00 | 76 | 1016.1 |
| 20260507122616 | 56 | 185 | 5.2 | 7.8 | 0.00 | 0.00 | 0.00 | 77 | 1016.2 |
| 20260507122446 | 56 | 194 | 6.1 | 7.0 | 0.00 | 0.00 | 0.00 | 76 | 1016.2 |
| 20260507122346 | 56 | 143 | 6.1 | 8.7 | 0.00 | 0.00 | 0.00 | 77 | 1016.2 |
| 20260507122216 | 56 | 149 | 6.1 | 7.0 | 0.00 | 0.00 | 0.00 | 77 | 1016.2 |
| 20260507122116 | 56 | 144 | 4.3 | 7.0 | 0.00 | 0.00 | 0.00 | 77 | 1016.2 |
| 20260507122016 | 56 | 205 | 5.2 | 6.1 | 0.00 | 0.00 | 0.00 | 77 | 1016.2 |
| 20260507121916 | 56 | 189 | 5.2 | 8.7 | 0.00 | 0.00 | 0.00 | 78 | 1016.2 |
| 20260507121746 | 56 | 132 | 6.1 | 10.4 | 0.00 | 0.00 | 0.00 | 77 | 1016.2 |
| 20260507121646 | 56 | 144 | 7.0 | 10.4 | 0.00 | 0.00 | 0.00 | 77 | 1016.2 |
| 20260507121516 | 56 | 145 | 5.2 | 10.4 | 0.00 | 0.00 | 0.00 | 78 | 1016.2 |
| 20260507121416 | 56 | 164 | 5.2 | 8.7 | 0.00 | 0.00 | 0.00 | 78 | 1016.2 |
| 20260507121316 | 56 | 174 | 6.1 | 7.0 | 0.00 | 0.00 | 0.00 | 77 | 1016.2 |
| 20260507121216 | 56 | 150 | 7.0 | 8.7 | 0.00 | 0.00 | 0.00 | 77 | 1016.2 |
| 20260507121046 | 56 | 157 | 6.1 | 8.7 | 0.00 | 0.00 | 0.00 | 78 | 1016.2 |
| 20260507120916 | 56 | 167 | 6.1 | 10.4 | 0.00 | 0.00 | 0.00 | 77 | 1016.2 |
| 20260507120816 | 56 | 154 | 6.1 | 7.8 | 0.00 | 0.00 | 0.00 | 78 | 1016.3 |
| 20260507120646 | 56 | 136 | 5.2 | 10.4 | 0.00 | 0.00 | 0.00 | 78 | 1016.2 |
| 20260507120546 | 56 | 154 | 6.1 | 7.0 | 0.00 | 0.00 | 0.00 | 78 | 1016.2 |
| 20260507120416 | 56 | 175 | 5.2 | 7.0 | 0.00 | 0.00 | 0.00 | 78 | 1016.2 |
| 20260507120246 | 56 | 136 | 7.0 | 10.4 | 0.00 | 0.00 | 0.00 | 77 | 1016.2 |
| 20260507120146 | 56 | 136 | 7.0 | 10.4 | 0.00 | 0.00 | 0.00 | 76 | 1016.2 |
| 20260507120016 | 56 | 142 | 7.0 | 10.4 | 0.00 | 0.00 | 0.00 | 75 | 1016.2 |
| 20260507115846 | 57 | 143 | 5.2 | 10.4 | 0.00 | 0.00 | 0.00 | 76 | 1016.2 |
| 20260507115746 | 57 | 221 | 5.2 | 7.8 | 0.00 | 0.00 | 0.00 | 77 | 1016.2 |
| 20260507115646 | 57 | 172 | 4.3 | 6.1 | 0.00 | 0.00 | 0.00 | 77 | 1016.2 |
| 20260507115516 | 56 | 179 | 6.1 | 5.2 | 0.00 | 0.00 | 0.00 | 76 | 1016.2 |
| 20260507115416 | 57 | 154 | 7.0 | 10.4 | 0.00 | 0.00 | 0.00 | 76 | 1016.2 |
| 20260507115316 | 57 | 138 | 5.2 | 8.7 | 0.00 | 0.00 | 0.00 | 76 | 1016.3 |
| 20260507115146 | 57 | 164 | 7.0 | 10.4 | 0.00 | 0.00 | 0.00 | 76 | 1016.3 |
| 20260507115046 | 57 | 159 | 7.0 | 10.4 | 0.00 | 0.00 | 0.00 | 75 | 1016.3 |
| 20260507114916 | 57 | 139 | 5.2 | 10.4 | 0.00 | 0.00 | 0.00 | 76 | 1016.3 |
| 20260507114746 | 57 | 196 | 6.1 | 7.8 | 0.00 | 0.00 | 0.00 | 76 | 1016.3 |
| 20260507114646 | 57 | 198 | 6.1 | 7.8 | 0.00 | 0.00 | 0.00 | 76 | 1016.3 |
| 20260507114516 | 56 | 207 | 6.1 | 7.8 | 0.00 | 0.00 | 0.00 | 76 | 1016.3 |
| 20260507114415 | 57 | 167 | 7.8 | 8.7 | 0.00 | 0.00 | 0.00 | 75 | 1016.3 |
| 20260507114315 | 57 | 165 | 7.8 | 10.4 | 0.00 | 0.00 | 0.00 | 76 | 1016.3 |
| 20260507114145 | 57 | 175 | 5.2 | 8.7 | 0.00 | 0.00 | 0.00 | 77 | 1016.3 |
| 20260507114044 | 57 | 195 | 6.1 | 7.0 | 0.00 | 0.00 | 0.00 | 76 | 1016.3 |
| 20260507113944 | 57 | 150 | 7.0 | 10.4 | 0.00 | 0.00 | 0.00 | 76 | 1016.3 |
| 20260507113844 | 57 | 158 | 6.1 | 8.7 | 0.00 | 0.00 | 0.00 | 76 | 1016.3 |
| 20260507113744 | 57 | 174 | 5.2 | 10.4 | 0.00 | 0.00 | 0.00 | 76 | 1016.3 |
| 20260507113644 | 57 | 195 | 5.2 | 7.0 | 0.00 | 0.00 | 0.00 | 76 | 1016.3 |
| 20260507113514 | 57 | 186 | 6.1 | 8.7 | 0.00 | 0.00 | 0.00 | 76 | 1016.3 |
| 20260507113414 | 57 | 199 | 7.0 | 8.7 | 0.00 | 0.00 | 0.00 | 76 | 1016.3 |
| 20260507113314 | 57 | 146 | 6.1 | 8.7 | 0.00 | 0.00 | 0.00 | 76 | 1016.3 |
| 20260507113214 | 57 | 155 | 4.3 | 8.7 | 0.00 | 0.00 | 0.00 | 77 | 1016.3 |
| 20260507113114 | 57 | 199 | 5.2 | 6.1 | 0.00 | 0.00 | 0.00 | 76 | 1016.4 |
| 20260507112944 | 57 | 202 | 4.3 | 6.1 | 0.00 | 0.00 | 0.00 | 76 | 1016.3 |
| 20260507112814 | 57 | 219 | 6.1 | 7.8 | 0.00 | 0.00 | 0.00 | 76 | 1016.4 |
| 20260507112644 | 56 | 192 | 5.2 | 7.8 | 0.00 | 0.00 | 0.00 | 78 | 1016.3 |
| 20260507112514 | 56 | 181 | 5.2 | 7.8 | 0.00 | 0.00 | 0.00 | 77 | 1016.3 |
| 20260507112414 | 56 | 157 | 6.1 | 7.8 | 0.00 | 0.00 | 0.00 | 77 | 1016.3 |
| 20260507112314 | 56 | 149 | 7.0 | 10.4 | 0.00 | 0.00 | 0.00 | 77 | 1016.3 |
| 20260507112214 | 56 | 163 | 6.1 | 10.4 | 0.00 | 0.00 | 0.00 | 76 | 1016.3 |
| 20260507112114 | 56 | 153 | 6.1 | 10.4 | 0.00 | 0.00 | 0.00 | 77 | 1016.3 |
| 20260507112014 | 56 | 170 | 5.2 | 7.8 | 0.00 | 0.00 | 0.00 | 77 | 1016.3 |
| 20260507111844 | 56 | 175 | 4.3 | 5.2 | 0.00 | 0.00 | 0.00 | 77 | 1016.3 |
| 20260507111714 | 56 | 193 | 5.2 | 7.0 | 0.00 | 0.00 | 0.00 | 77 | 1016.3 |
| 20260507111544 | 56 | 147 | 7.0 | 10.4 | 0.00 | 0.00 | 0.00 | 76 | 1016.3 |
| 20260507111444 | 56 | 134 | 5.2 | 10.4 | 0.00 | 0.00 | 0.00 | 76 | 1016.3 |
| 20260507111314 | 56 | 184 | 6.1 | 7.0 | 0.00 | 0.00 | 0.00 | 76 | 1016.3 |
| 20260507111144 | 57 | 146 | 6.1 | 7.8 | 0.00 | 0.00 | 0.00 | 76 | 1016.3 |
| 20260507111044 | 57 | 152 | 6.1 | 8.7 | 0.00 | 0.00 | 0.00 | 76 | 1016.3 |
| 20260507110914 | 57 | 167 | 7.0 | 8.7 | 0.00 | 0.00 | 0.00 | 76 | 1016.3 |
| 20260507110814 | 57 | 167 | 6.1 | 10.4 | 0.00 | 0.00 | 0.00 | 77 | 1016.3 |
| 20260507110714 | 57 | 191 | 5.2 | 7.8 | 0.00 | 0.00 | 0.00 | 77 | 1016.3 |
| 20260507110544 | 57 | 188 | 5.2 | 8.7 | 0.00 | 0.00 | 0.00 | 77 | 1016.3 |
| 20260507110444 | 57 | 189 | 5.2 | 7.0 | 0.00 | 0.00 | 0.00 | 77 | 1016.3 |
| 20260507110344 | 57 | 164 | 5.2 | 8.7 | 0.00 | 0.00 | 0.00 | 77 | 1016.4 |
| 20260507110214 | 56 | 165 | 5.2 | 7.8 | 0.00 | 0.00 | 0.00 | 78 | 1016.4 |
| 20260507110114 | 56 | 166 | 4.3 | 7.8 | 0.00 | 0.00 | 0.00 | 77 | 1016.4 |
| 20260507110014 | 56 | 167 | 5.2 | 6.1 | 0.00 | 0.00 | 0.00 | 77 | 1016.3 |
| 20260507105844 | 56 | 157 | 7.0 | 8.7 | 0.00 | 0.00 | 0.00 | 76 | 1016.4 |
| 20260507105714 | 56 | 162 | 7.0 | 10.4 | 0.00 | 0.00 | 0.00 | 77 | 1016.4 |
| 20260507105614 | 56 | 174 | 6.1 | 10.4 | 0.00 | 0.00 | 0.00 | 76 | 1016.4 |
| 20260507105513 | 56 | 153 | 7.0 | 10.4 | 0.00 | 0.00 | 0.00 | 76 | 1016.3 |
| 20260507105344 | 56 | 150 | 7.0 | 8.7 | 0.00 | 0.00 | 0.00 | 76 | 1016.4 |
| 20260507105244 | 56 | 163 | 7.0 | 8.7 | 0.00 | 0.00 | 0.00 | 77 | 1016.4 |
| 20260507105113 | 56 | 169 | 7.0 | 8.7 | 0.00 | 0.00 | 0.00 | 76 | 1016.4 |
| 20260507105014 | 56 | 152 | 7.0 | 10.4 | 0.00 | 0.00 | 0.00 | 76 | 1016.4 |
| 20260507104914 | 56 | 157 | 7.0 | 10.4 | 0.00 | 0.00 | 0.00 | 76 | 1016.4 |
| 20260507104814 | 56 | 175 | 6.1 | 7.8 | 0.00 | 0.00 | 0.00 | 77 | 1016.4 |
| 20260507104644 | 56 | 213 | 5.2 | 6.1 | 0.00 | 0.00 | 0.00 | 76 | 1016.4 |
| 20260507104514 | 56 | 152 | 7.0 | 8.7 | 0.00 | 0.00 | 0.00 | 76 | 1016.4 |
| 20260507104414 | 56 | 167 | 7.8 | 10.4 | 0.00 | 0.00 | 0.00 | 76 | 1016.4 |
| 20260507104314 | 56 | 168 | 7.0 | 11.3 | 0.00 | 0.00 | 0.00 | 76 | 1016.4 |
| 20260507104144 | 56 | 162 | 7.8 | 10.4 | 0.00 | 0.00 | 0.00 | 76 | 1016.4 |
| 20260507104015 | 56 | 173 | 5.2 | 10.4 | 0.00 | 0.00 | 0.00 | 77 | 1016.4 |
| 20260507103844 | 56 | 193 | 6.1 | 6.1 | 0.00 | 0.00 | 0.00 | 77 | 1016.4 |
| 20260507103743 | 56 | 170 | 7.0 | 8.7 | 0.00 | 0.00 | 0.00 | 77 | 1016.4 |
| 20260507103613 | 56 | 158 | 6.1 | 8.7 | 0.00 | 0.00 | 0.00 | 77 | 1016.4 |
| 20260507103513 | 56 | 171 | 4.3 | 7.8 | 0.00 | 0.00 | 0.00 | 77 | 1016.4 |
| 20260507103413 | 56 | 209 | 4.3 | 5.2 | 0.00 | 0.00 | 0.00 | 77 | 1016.4 |
| 20260507103313 | 56 | 174 | 7.0 | 7.0 | 0.00 | 0.00 | 0.00 | 76 | 1016.4 |
| 20260507103213 | 56 | 163 | 7.0 | 11.3 | 0.00 | 0.00 | 0.00 | 77 | 1016.4 |
| 20260507103043 | 56 | 193 | 6.1 | 7.0 | 0.00 | 0.00 | 0.00 | 77 | 1016.4 |
| 20260507102913 | 56 | 170 | 7.0 | 8.7 | 0.00 | 0.00 | 0.00 | 77 | 1016.4 |
| 20260507102743 | 56 | 191 | 5.2 | 8.7 | 0.00 | 0.00 | 0.00 | 78 | 1016.4 |
| 20260507102613 | 56 | 173 | 5.2 | 7.0 | 0.00 | 0.00 | 0.00 | 77 | 1016.4 |
| 20260507102513 | 56 | 158 | 7.0 | 8.7 | 0.00 | 0.00 | 0.00 | 77 | 1016.4 |
| 20260507102413 | 56 | 159 | 7.0 | 11.3 | 0.00 | 0.00 | 0.00 | 77 | 1016.4 |
| 20260507102313 | 56 | 154 | 7.0 | 11.3 | 0.00 | 0.00 | 0.00 | 77 | 1016.4 |
| 20260507102143 | 56 | 159 | 7.0 | 10.4 | 0.00 | 0.00 | 0.00 | 78 | 1016.4 |
| 20260507102013 | 56 | 165 | 7.0 | 10.4 | 0.00 | 0.00 | 0.00 | 79 | 1016.4 |
| 20260507101843 | 56 | 183 | 4.3 | 7.0 | 0.00 | 0.00 | 0.00 | 78 | 1016.3 |
| 20260507101743 | 56 | 220 | 6.1 | 7.0 | 0.00 | 0.00 | 0.00 | 78 | 1016.4 |
| 20260507101643 | 56 | 180 | 6.1 | 8.7 | 0.00 | 0.00 | 0.00 | 78 | 1016.4 |
| 20260507101543 | 56 | 170 | 6.1 | 10.4 | 0.00 | 0.00 | 0.00 | 78 | 1016.3 |
| 20260507101443 | 56 | 200 | 7.0 | 7.8 | 0.00 | 0.00 | 0.00 | 78 | 1016.3 |
| 20260507101343 | 56 | 189 | 7.0 | 10.4 | 0.00 | 0.00 | 0.00 | 78 | 1016.3 |
| 20260507101243 | 56 | 205 | 7.8 | 10.4 | 0.00 | 0.00 | 0.00 | 78 | 1016.3 |
| 20260507101143 | 56 | 165 | 7.0 | 10.4 | 0.00 | 0.00 | 0.00 | 78 | 1016.3 |
| 20260507101013 | 56 | 208 | 7.0 | 10.4 | 0.00 | 0.00 | 0.00 | 78 | 1016.4 |
| 20260507100844 | 56 | 168 | 7.0 | 10.4 | 0.00 | 0.00 | 0.00 | 78 | 1016.4 |
| 20260507100743 | 56 | 206 | 7.0 | 10.4 | 0.00 | 0.00 | 0.00 | 78 | 1016.3 |
| 20260507100643 | 56 | 209 | 6.1 | 10.4 | 0.00 | 0.00 | 0.00 | 78 | 1016.4 |
| 20260507100513 | 56 | 176 | 5.2 | 7.8 | 0.00 | 0.00 | 0.00 | 79 | 1016.4 |
| 20260507100413 | 56 | 204 | 5.2 | 6.1 | 0.00 | 0.00 | 0.00 | 79 | 1016.4 |
| 20260507100243 | 56 | 195 | 5.2 | 7.0 | 0.00 | 0.00 | 0.00 | 79 | 1016.4 |
| 20260507100143 | 55 | 200 | 6.1 | 7.0 | 0.00 | 0.00 | 0.00 | 79 | 1016.4 |
| 20260507100043 | 55 | 163 | 6.1 | 7.8 | 0.00 | 0.00 | 0.00 | 79 | 1016.4 |
| 20260507095913 | 55 | 173 | 6.1 | 10.4 | 0.00 | 0.00 | 0.00 | 79 | 1016.4 |
| 20260507095813 | 55 | 195 | 7.8 | 8.7 | 0.00 | 0.00 | 0.00 | 79 | 1016.4 |
| 20260507095713 | 55 | 179 | 7.8 | 11.3 | 0.00 | 0.00 | 0.00 | 79 | 1016.4 |
| 20260507095613 | 55 | 186 | 7.0 | 10.4 | 0.00 | 0.00 | 0.00 | 79 | 1016.3 |
| 20260507095513 | 55 | 172 | 7.0 | 10.4 | 0.00 | 0.00 | 0.00 | 80 | 1016.4 |
| 20260507095343 | 55 | 165 | 7.8 | 10.4 | 0.00 | 0.00 | 0.00 | 79 | 1016.4 |
| 20260507095243 | 55 | 157 | 7.8 | 11.3 | 0.00 | 0.00 | 0.00 | 80 | 1016.4 |
| 20260507095113 | 55 | 184 | 6.1 | 10.4 | 0.00 | 0.00 | 0.00 | 80 | 1016.4 |
| 20260507094943 | 55 | 161 | 7.8 | 13.0 | 0.00 | 0.00 | 0.00 | 80 | 1016.4 |
| 20260507094813 | 55 | 167 | 6.1 | 12.2 | 0.00 | 0.00 | 0.00 | 80 | 1016.4 |
| 20260507094643 | 55 | 166 | 7.8 | 11.3 | 0.00 | 0.00 | 0.00 | 79 | 1016.4 |
| 20260507094543 | 55 | 167 | 7.8 | 12.2 | 0.00 | 0.00 | 0.00 | 79 | 1016.4 |
| 20260507094443 | 55 | 184 | 7.8 | 11.3 | 0.00 | 0.00 | 0.00 | 79 | 1016.4 |
| 20260507094343 | 55 | 190 | 7.8 | 10.4 | 0.00 | 0.00 | 0.00 | 79 | 1016.4 |
| 20260507094243 | 55 | 170 | 7.0 | 10.4 | 0.00 | 0.00 | 0.00 | 79 | 1016.4 |
| 20260507094143 | 55 | 180 | 7.8 | 8.7 | 0.00 | 0.00 | 0.00 | 79 | 1016.4 |
| 20260507094043 | 55 | 165 | 7.8 | 11.3 | 0.00 | 0.00 | 0.00 | 79 | 1016.4 |
| 20260507093943 | 55 | 159 | 7.0 | 8.7 | 0.00 | 0.00 | 0.00 | 79 | 1016.4 |
| 20260507093843 | 55 | 167 | 7.0 | 8.7 | 0.00 | 0.00 | 0.00 | 79 | 1016.4 |
| 20260507093743 | 55 | 179 | 7.0 | 11.3 | 0.00 | 0.00 | 0.00 | 80 | 1016.4 |
| 20260507093643 | 55 | 179 | 6.1 | 8.7 | 0.00 | 0.00 | 0.00 | 80 | 1016.4 |
| 20260507093543 | 55 | 163 | 7.0 | 10.4 | 0.00 | 0.00 | 0.00 | 79 | 1016.4 |
| 20260507093413 | 55 | 167 | 7.0 | 10.4 | 0.00 | 0.00 | 0.00 | 80 | 1016.3 |
| 20260507093313 | 55 | 169 | 6.1 | 10.4 | 0.00 | 0.00 | 0.00 | 80 | 1016.4 |
| 20260507093213 | 55 | 169 | 6.1 | 10.4 | 0.00 | 0.00 | 0.00 | 80 | 1016.3 |
| 20260507093043 | 55 | 163 | 7.0 | 10.4 | 0.00 | 0.00 | 0.00 | 80 | 1016.3 |
| 20260507092943 | 55 | 173 | 6.1 | 7.8 | 0.00 | 0.00 | 0.00 | 80 | 1016.3 |
| 20260507092843 | 55 | 154 | 7.0 | 11.3 | 0.00 | 0.00 | 0.00 | 80 | 1016.3 |
| 20260507092743 | 55 | 183 | 6.1 | 10.4 | 0.00 | 0.00 | 0.00 | 80 | 1016.3 |
| 20260507092613 | 55 | 176 | 7.0 | 10.4 | 0.00 | 0.00 | 0.00 | 80 | 1016.3 |
| 20260507092513 | 55 | 159 | 7.0 | 11.3 | 0.00 | 0.00 | 0.00 | 80 | 1016.3 |
| 20260507092413 | 55 | 149 | 7.8 | 10.4 | 0.00 | 0.00 | 0.00 | 79 | 1016.3 |
| 20260507092313 | 55 | 165 | 8.7 | 12.2 | 0.00 | 0.00 | 0.00 | 80 | 1016.3 |
| 20260507092213 | 55 | 163 | 8.7 | 12.2 | 0.00 | 0.00 | 0.00 | 80 | 1016.3 |
| 20260507092113 | 55 | 155 | 6.1 | 11.3 | 0.00 | 0.00 | 0.00 | 80 | 1016.3 |
| 20260507092013 | 55 | 175 | 5.2 | 7.8 | 0.00 | 0.00 | 0.00 | 80 | 1016.3 |
| 20260507091913 | 55 | 206 | 6.1 | 8.7 | 0.00 | 0.00 | 0.00 | 80 | 1016.3 |
| 20260507091813 | 55 | 185 | 6.1 | 8.7 | 0.00 | 0.00 | 0.00 | 81 | 1016.3 |
| 20260507091713 | 55 | 188 | 5.2 | 8.7 | 0.00 | 0.00 | 0.00 | 81 | 1016.3 |
| 20260507091613 | 54 | 200 | 6.1 | 7.0 | 0.00 | 0.00 | 0.00 | 80 | 1016.3 |
| 20260507091513 | 54 | 154 | 7.0 | 10.4 | 0.00 | 0.00 | 0.00 | 81 | 1016.3 |
| 20260507091413 | 54 | 169 | 7.0 | 10.4 | 0.00 | 0.00 | 0.00 | 81 | 1016.3 |
| 20260507091312 | 54 | 163 | 7.0 | 11.3 | 0.00 | 0.00 | 0.00 | 81 | 1016.3 |
| 20260507091212 | 54 | 167 | 7.8 | 10.4 | 0.00 | 0.00 | 0.00 | 80 | 1016.2 |
| 20260507091112 | 55 | 164 | 7.8 | 11.3 | 0.00 | 0.00 | 0.00 | 80 | 1016.2 |
| 20260507091012 | 55 | 173 | 6.1 | 10.4 | 0.00 | 0.00 | 0.00 | 81 | 1016.2 |
| 20260507090912 | 54 | 193 | 7.8 | 10.4 | 0.00 | 0.00 | 0.00 | 80 | 1016.2 |
| 20260507090812 | 55 | 164 | 8.7 | 12.2 | 0.00 | 0.00 | 0.00 | 81 | 1016.2 |
| 20260507090712 | 54 | 156 | 6.1 | 12.2 | 0.00 | 0.00 | 0.00 | 81 | 1016.3 |
| 20260507090612 | 54 | 179 | 7.0 | 10.4 | 0.00 | 0.00 | 0.00 | 81 | 1016.2 |
| 20260507090512 | 54 | 159 | 7.8 | 11.3 | 0.00 | 0.00 | 0.00 | 81 | 1016.3 |
| 20260507090412 | 54 | 157 | 7.8 | 11.3 | 0.00 | 0.00 | 0.00 | 81 | 1016.3 |
| 20260507090312 | 54 | 180 | 6.1 | 10.4 | 0.00 | 0.00 | 0.00 | 81 | 1016.3 |
| 20260507090212 | 54 | 204 | 6.1 | 7.0 | 0.00 | 0.00 | 0.00 | 81 | 1016.2 |
| 20260507090042 | 54 | 159 | 7.8 | 11.3 | 0.00 | 0.00 | 0.00 | 81 | 1016.3 |
| 20260507085942 | 54 | 156 | 8.7 | 10.4 | 0.00 | 0.00 | 0.00 | 81 | 1016.3 |
| 20260507085842 | 54 | 165 | 10.4 | 12.2 | 0.00 | 0.00 | 0.00 | 81 | 1016.2 |
| 20260507085742 | 54 | 154 | 7.8 | 11.3 | 0.00 | 0.00 | 0.00 | 81 | 1016.3 |
| 20260507085641 | 54 | 166 | 7.8 | 10.4 | 0.00 | 0.00 | 0.00 | 82 | 1016.2 |
| 20260507085541 | 54 | 174 | 6.1 | 11.3 | 0.00 | 0.00 | 0.00 | 82 | 1016.2 |
| 20260507085441 | 54 | 176 | 6.1 | 8.7 | 0.00 | 0.00 | 0.00 | 82 | 1016.3 |
| 20260507085341 | 53 | 181 | 5.2 | 8.7 | 0.00 | 0.00 | 0.00 | 81 | 1016.3 |
| 20260507085241 | 53 | 177 | 7.0 | 11.3 | 0.00 | 0.00 | 0.00 | 81 | 1016.3 |
| 20260507085141 | 53 | 159 | 7.8 | 10.4 | 0.00 | 0.00 | 0.00 | 81 | 1016.2 |
| 20260507085041 | 53 | 163 | 8.7 | 10.4 | 0.00 | 0.00 | 0.00 | 81 | 1016.3 |
| 20260507084941 | 53 | 156 | 8.7 | 12.2 | 0.00 | 0.00 | 0.00 | 81 | 1016.3 |
| 20260507084841 | 53 | 165 | 6.1 | 10.4 | 0.00 | 0.00 | 0.00 | 82 | 1016.3 |
| 20260507084741 | 53 | 162 | 6.1 | 8.7 | 0.00 | 0.00 | 0.00 | 81 | 1016.2 |
| 20260507084641 | 53 | 152 | 7.8 | 10.4 | 0.00 | 0.00 | 0.00 | 82 | 1016.2 |
| 20260507084541 | 53 | 147 | 7.0 | 10.4 | 0.00 | 0.00 | 0.00 | 82 | 1016.3 |
| 20260507084441 | 53 | 157 | 5.2 | 7.8 | 0.00 | 0.00 | 0.00 | 82 | 1016.2 |
| 20260507084341 | 53 | 153 | 6.1 | 10.4 | 0.00 | 0.00 | 0.00 | 82 | 1016.2 |
| 20260507084241 | 53 | 149 | 7.8 | 8.7 | 0.00 | 0.00 | 0.00 | 82 | 1016.2 |
| 20260507084141 | 53 | 157 | 7.8 | 10.4 | 0.00 | 0.00 | 0.00 | 82 | 1016.2 |
| 20260507084041 | 53 | 151 | 8.7 | 11.3 | 0.00 | 0.00 | 0.00 | 82 | 1016.2 |
| 20260507083940 | 53 | 137 | 7.8 | 11.3 | 0.00 | 0.00 | 0.00 | 82 | 1016.2 |
| 20260507083840 | 53 | 155 | 8.7 | 10.4 | 0.00 | 0.00 | 0.00 | 82 | 1016.2 |
| 20260507083740 | 53 | 154 | 8.7 | 13.0 | 0.00 | 0.00 | 0.00 | 82 | 1016.2 |
| 20260507083640 | 53 | 150 | 7.8 | 10.4 | 0.00 | 0.00 | 0.00 | 82 | 1016.2 |
| 20260507083540 | 53 | 152 | 7.8 | 10.4 | 0.00 | 0.00 | 0.00 | 82 | 1016.2 |
| 20260507083440 | 53 | 168 | 7.8 | 11.3 | 0.00 | 0.00 | 0.00 | 82 | 1016.2 |
| 20260507083340 | 53 | 144 | 7.0 | 10.4 | 0.00 | 0.00 | 0.00 | 82 | 1016.2 |
| 20260507083240 | 53 | 150 | 7.8 | 10.4 | 0.00 | 0.00 | 0.00 | 82 | 1016.2 |
| 20260507083140 | 53 | 159 | 7.8 | 11.3 | 0.00 | 0.00 | 0.00 | 82 | 1016.2 |
| 20260507083040 | 53 | 161 | 7.0 | 12.2 | 0.00 | 0.00 | 0.00 | 82 | 1016.2 |
| 20260507082940 | 53 | 166 | 7.0 | 10.4 | 0.00 | 0.00 | 0.00 | 82 | 1016.2 |
| 20260507082840 | 53 | 158 | 7.0 | 8.7 | 0.00 | 0.00 | 0.00 | 82 | 1016.2 |
| 20260507082740 | 53 | 159 | 7.0 | 10.4 | 0.00 | 0.00 | 0.00 | 82 | 1016.2 |
| 20260507082640 | 53 | 158 | 7.0 | 10.4 | 0.00 | 0.00 | 0.00 | 82 | 1016.2 |
| 20260507082539 | 53 | 150 | 7.0 | 13.0 | 0.00 | 0.00 | 0.00 | 82 | 1016.2 |
| 20260507082439 | 53 | 160 | 6.1 | 13.0 | 0.00 | 0.00 | 0.00 | 82 | 1016.2 |
| 20260507082339 | 53 | 149 | 6.1 | 10.4 | 0.00 | 0.00 | 0.00 | 82 | 1016.2 |
| 20260507082239 | 53 | 147 | 6.1 | 10.4 | 0.00 | 0.00 | 0.00 | 82 | 1016.2 |
| 20260507082139 | 53 | 161 | 7.0 | 7.8 | 0.00 | 0.00 | 0.00 | 82 | 1016.2 |
| 20260507082039 | 53 | 150 | 7.8 | 11.3 | 0.00 | 0.00 | 0.00 | 82 | 1016.2 |
| 20260507081939 | 53 | 151 | 7.0 | 10.4 | 0.00 | 0.00 | 0.00 | 82 | 1016.2 |
| 20260507081840 | 53 | 160 | 7.0 | 8.7 | 0.00 | 0.00 | 0.00 | 82 | 1016.2 |
| 20260507081739 | 53 | 171 | 7.0 | 11.3 | 0.00 | 0.00 | 0.00 | 82 | 1016.2 |
| 20260507081639 | 53 | 153 | 7.0 | 10.4 | 0.00 | 0.00 | 0.00 | 82 | 1016.2 |
| 20260507081539 | 53 | 168 | 7.0 | 8.7 | 0.00 | 0.00 | 0.00 | 82 | 1016.2 |
| 20260507081439 | 53 | 158 | 7.0 | 10.4 | 0.00 | 0.00 | 0.00 | 82 | 1016.2 |
| 20260507081339 | 53 | 147 | 6.1 | 8.7 | 0.00 | 0.00 | 0.00 | 82 | 1016.2 |
| 20260507081239 | 53 | 151 | 6.1 | 8.7 | 0.00 | 0.00 | 0.00 | 82 | 1016.2 |
| 20260507081138 | 53 | 153 | 5.2 | 8.7 | 0.00 | 0.00 | 0.00 | 82 | 1016.2 |
| 20260507081038 | 53 | 159 | 5.2 | 8.7 | 0.00 | 0.00 | 0.00 | 82 | 1016.2 |
| 20260507080938 | 53 | 164 | 6.1 | 7.8 | 0.00 | 0.00 | 0.00 | 82 | 1016.2 |
| 20260507080838 | 53 | 161 | 6.1 | 8.7 | 0.00 | 0.00 | 0.00 | 82 | 1016.2 |
| 20260507080738 | 53 | 160 | 7.0 | 8.7 | 0.00 | 0.00 | 0.00 | 82 | 1016.2 |
| 20260507080638 | 53 | 146 | 7.0 | 11.3 | 0.00 | 0.00 | 0.00 | 82 | 1016.2 |
| 20260507080538 | 53 | 152 | 6.1 | 8.7 | 0.00 | 0.00 | 0.00 | 82 | 1016.2 |
| 20260507080438 | 53 | 154 | 7.0 | 10.4 | 0.00 | 0.00 | 0.00 | 82 | 1016.2 |
| 20260507080338 | 53 | 155 | 7.8 | 12.2 | 0.00 | 0.00 | 0.00 | 82 | 1016.2 |
| 20260507080238 | 53 | 150 | 6.1 | 10.4 | 0.00 | 0.00 | 0.00 | 82 | 1016.2 |
| 20260507080138 | 53 | 159 | 6.1 | 8.7 | 0.00 | 0.00 | 0.00 | 82 | 1016.2 |
| 20260507080038 | 53 | 154 | 6.1 | 8.7 | 0.00 | 0.00 | 0.00 | 82 | 1016.2 |
| 20260507075938 | 53 | 162 | 6.1 | 7.8 | 0.00 | 0.00 | 0.00 | 83 | 1016.2 |
| 20260507075837 | 53 | 177 | 7.8 | 10.4 | 0.00 | 0.00 | 0.00 | 83 | 1016.2 |
| 20260507075737 | 53 | 158 | 8.7 | 10.4 | 0.00 | 0.00 | 0.00 | 83 | 1016.2 |
| 20260507075637 | 53 | 153 | 7.0 | 12.2 | 0.00 | 0.00 | 0.00 | 83 | 1016.1 |
| 20260507075537 | 52 | 165 | 7.0 | 8.7 | 0.00 | 0.00 | 0.00 | 83 | 1016.1 |
| 20260507075437 | 52 | 144 | 6.1 | 11.3 | 0.00 | 0.00 | 0.00 | 83 | 1016.2 |
| 20260507075337 | 52 | 165 | 6.1 | 7.0 | 0.00 | 0.00 | 0.00 | 83 | 1016.1 |
| 20260507075237 | 52 | 158 | 7.0 | 10.4 | 0.00 | 0.00 | 0.00 | 83 | 1016.1 |
| 20260507075137 | 52 | 168 | 7.8 | 11.3 | 0.00 | 0.00 | 0.00 | 83 | 1016.1 |
| 20260507075037 | 52 | 153 | 8.7 | 10.4 | 0.00 | 0.00 | 0.00 | 83 | 1016.1 |
| 20260507074937 | 52 | 148 | 7.8 | 13.0 | 0.00 | 0.00 | 0.00 | 83 | 1016.1 |
| 20260507074837 | 52 | 156 | 7.0 | 10.4 | 0.00 | 0.00 | 0.00 | 83 | 1016.1 |
| 20260507074737 | 52 | 151 | 6.1 | 8.7 | 0.00 | 0.00 | 0.00 | 83 | 1016.1 |
| 20260507074637 | 52 | 171 | 5.2 | 7.8 | 0.00 | 0.00 | 0.00 | 83 | 1016.2 |
| 20260507074537 | 52 | 148 | 5.2 | 8.7 | 0.00 | 0.00 | 0.00 | 83 | 1016.2 |
| 20260507074437 | 52 | 147 | 5.2 | 8.7 | 0.00 | 0.00 | 0.00 | 83 | 1016.1 |
| 20260507074337 | 52 | 154 | 6.1 | 7.0 | 0.00 | 0.00 | 0.00 | 83 | 1016.1 |
| 20260507074236 | 52 | 136 | 7.0 | 10.4 | 0.00 | 0.00 | 0.00 | 83 | 1016.0 |
| 20260507074136 | 52 | 149 | 7.0 | 7.8 | 0.00 | 0.00 | 0.00 | 83 | 1016.0 |
| 20260507074036 | 52 | 137 | 7.8 | 11.3 | 0.00 | 0.00 | 0.00 | 83 | 1016.0 |
| 20260507073936 | 52 | 148 | 7.0 | 10.4 | 0.00 | 0.00 | 0.00 | 83 | 1016.0 |
| 20260507073836 | 52 | 146 | 7.0 | 10.4 | 0.00 | 0.00 | 0.00 | 83 | 1016.0 |
| 20260507073736 | 52 | 139 | 8.7 | 11.3 | 0.00 | 0.00 | 0.00 | 83 | 1016.0 |
| 20260507073636 | 52 | 134 | 10.4 | 11.3 | 0.00 | 0.01 | 0.00 | 83 | 1016.0 |
| 20260507073536 | 52 | 128 | 7.8 | 13.0 | 0.00 | 0.01 | 0.00 | 83 | 1015.9 |
| 20260507073436 | 52 | 137 | 7.8 | 10.4 | 0.00 | 0.01 | 0.00 | 83 | 1015.9 |
| 20260507073336 | 52 | 137 | 7.0 | 8.7 | 0.00 | 0.01 | 0.00 | 83 | 1015.9 |
| 20260507073236 | 52 | 149 | 7.8 | 10.4 | 0.00 | 0.01 | 0.00 | 83 | 1015.9 |
| 20260507073136 | 52 | 141 | 7.8 | 11.3 | 0.00 | 0.01 | 0.00 | 83 | 1015.9 |
| 20260507073036 | 52 | 138 | 7.0 | 10.4 | 0.00 | 0.01 | 0.00 | 83 | 1015.9 |
| 20260507072936 | 52 | 144 | 7.0 | 10.4 | 0.00 | 0.01 | 0.00 | 83 | 1015.9 |
| 20260507072836 | 52 | 141 | 7.8 | 11.3 | 0.00 | 0.01 | 0.00 | 83 | 1015.9 |
| 20260507072736 | 52 | 140 | 7.8 | 10.4 | 0.00 | 0.01 | 0.00 | 83 | 1015.9 |
| 20260507072636 | 52 | 121 | 8.7 | 10.4 | 0.00 | 0.01 | 0.00 | 83 | 1015.9 |
| 20260507072536 | 52 | 124 | 7.0 | 11.3 | 0.00 | 0.01 | 0.00 | 83 | 1015.9 |
| 20260507072435 | 52 | 137 | 7.8 | 10.4 | 0.00 | 0.01 | 0.00 | 83 | 1015.9 |
| 20260507072335 | 52 | 130 | 7.0 | 10.4 | 0.00 | 0.01 | 0.00 | 83 | 1015.9 |
| 20260507072235 | 52 | 132 | 7.0 | 8.7 | 0.00 | 0.01 | 0.00 | 83 | 1015.9 |
| 20260507072135 | 52 | 133 | 7.8 | 12.2 | 0.00 | 0.01 | 0.00 | 83 | 1015.9 |
| 20260507072035 | 52 | 130 | 6.1 | 11.3 | 0.00 | 0.01 | 0.00 | 83 | 1015.9 |
| 20260507071935 | 52 | 135 | 6.1 | 8.7 | 0.00 | 0.01 | 0.00 | 83 | 1015.9 |
| 20260507071835 | 52 | 131 | 7.8 | 10.4 | 0.00 | 0.01 | 0.00 | 83 | 1015.9 |
| 20260507071735 | 52 | 133 | 7.0 | 11.3 | 0.00 | 0.01 | 0.00 | 83 | 1015.9 |
| 20260507071635 | 52 | 141 | 6.1 | 10.4 | 0.00 | 0.01 | 0.00 | 83 | 1015.9 |
| 20260507071535 | 52 | 129 | 7.8 | 8.7 | 0.00 | 0.01 | 0.00 | 83 | 1015.9 |
| 20260507071435 | 52 | 130 | 7.0 | 10.4 | 0.00 | 0.01 | 0.00 | 83 | 1015.9 |
| 20260507071335 | 52 | 120 | 7.0 | 8.7 | 0.00 | 0.01 | 0.00 | 83 | 1015.8 |
| 20260507071235 | 52 | 137 | 7.0 | 8.7 | 0.00 | 0.01 | 0.00 | 83 | 1015.9 |
| 20260507071135 | 52 | 130 | 7.0 | 8.7 | 0.00 | 0.01 | 0.00 | 83 | 1015.8 |
| 20260507071035 | 52 | 129 | 7.8 | 10.4 | 0.00 | 0.01 | 0.00 | 84 | 1015.8 |
| 20260507070905 | 52 | 127 | 7.8 | 11.3 | 0.00 | 0.01 | 0.00 | 84 | 1015.8 |
| 20260507070805 | 52 | 135 | 7.8 | 11.3 | 0.00 | 0.01 | 0.00 | 84 | 1015.8 |
| 20260507070704 | 52 | 135 | 7.8 | 10.4 | 0.00 | 0.01 | 0.00 | 84 | 1015.8 |
| 20260507070604 | 52 | 125 | 7.0 | 10.4 | 0.00 | 0.01 | 0.00 | 84 | 1015.7 |
| 20260507070504 | 52 | 131 | 8.7 | 11.3 | 0.00 | 0.01 | 0.00 | 84 | 1015.7 |
| 20260507070404 | 52 | 121 | 8.7 | 11.3 | 0.00 | 0.01 | 0.00 | 84 | 1015.7 |
| 20260507070304 | 52 | 127 | 7.0 | 10.4 | 0.00 | 0.01 | 0.00 | 84 | 1015.7 |
| 20260507070204 | 52 | 133 | 7.0 | 8.7 | 0.00 | 0.01 | 0.00 | 84 | 1015.6 |
| 20260507070104 | 52 | 132 | 7.8 | 10.4 | 0.00 | 0.01 | 0.00 | 84 | 1015.6 |
| 20260507070008 | 52 | 132 | 8.7 | 10.4 | 0.00 | 0.01 | 0.00 | 84 | 1015.6 |
| 20260507065904 | 52 | 138 | 7.0 | 13.9 | 0.00 | 0.01 | 0.00 | 84 | 1015.6 |
| 20260507065804 | 52 | 130 | 7.8 | 11.3 | 0.00 | 0.01 | 0.00 | 84 | 1015.6 |
| 20260507065704 | 52 | 132 | 7.8 | 8.7 | 0.00 | 0.01 | 0.00 | 84 | 1015.6 |
| 20260507065604 | 52 | 133 | 8.7 | 10.4 | 0.00 | 0.01 | 0.00 | 84 | 1015.6 |
| 20260507065504 | 52 | 132 | 7.8 | 11.3 | 0.00 | 0.01 | 0.00 | 84 | 1015.6 |
| 20260507065404 | 52 | 137 | 7.8 | 11.3 | 0.00 | 0.01 | 0.00 | 84 | 1015.6 |
| 20260507065306 | 52 | 137 | 7.8 | 10.4 | 0.00 | 0.01 | 0.00 | 84 | 1015.7 |
| 20260507065204 | 52 | 127 | 7.0 | 10.4 | 0.00 | 0.01 | 0.00 | 84 | 1015.7 |
| 20260507065104 | 52 | 126 | 7.0 | 10.4 | 0.00 | 0.01 | 0.00 | 84 | 1015.7 |
| 20260507065004 | 52 | 131 | 7.0 | 8.7 | 0.00 | 0.01 | 0.00 | 84 | 1015.7 |
| 20260507064903 | 52 | 118 | 7.8 | 8.7 | 0.00 | 0.01 | 0.00 | 84 | 1015.7 |
| 20260507064803 | 52 | 127 | 7.0 | 10.4 | 0.00 | 0.01 | 0.00 | 85 | 1015.7 |
| 20260507064703 | 52 | 137 | 6.1 | 7.8 | 0.00 | 0.01 | 0.00 | 85 | 1015.7 |
| 20260507064603 | 52 | 134 | 7.0 | 10.4 | 0.00 | 0.01 | 0.00 | 85 | 1015.7 |
| 20260507064503 | 51 | 135 | 6.1 | 8.7 | 0.00 | 0.01 | 0.00 | 85 | 1015.7 |
| 20260507064403 | 51 | 134 | 7.0 | 7.8 | 0.00 | 0.01 | 0.00 | 85 | 1015.7 |
| 20260507064303 | 51 | 139 | 7.8 | 11.3 | 0.00 | 0.01 | 0.00 | 85 | 1015.7 |
| 20260507064203 | 51 | 142 | 7.0 | 10.4 | 0.00 | 0.01 | 0.00 | 85 | 1015.7 |
| 20260507064103 | 51 | 141 | 7.0 | 10.4 | 0.00 | 0.01 | 0.00 | 85 | 1015.7 |
| 20260507064003 | 51 | 129 | 6.1 | 11.3 | 0.00 | 0.01 | 0.00 | 85 | 1015.7 |
| 20260507063903 | 51 | 146 | 7.0 | 8.7 | 0.00 | 0.01 | 0.00 | 85 | 1015.7 |
| 20260507063803 | 51 | 136 | 7.0 | 10.4 | 0.00 | 0.01 | 0.00 | 85 | 1015.8 |
| 20260507063703 | 51 | 132 | 7.0 | 8.7 | 0.00 | 0.01 | 0.00 | 85 | 1015.8 |
| 20260507063602 | 51 | 139 | 7.8 | 10.4 | 0.00 | 0.01 | 0.00 | 85 | 1015.8 |
| 20260507063502 | 51 | 128 | 7.8 | 12.2 | 0.00 | 0.01 | 0.00 | 86 | 1015.8 |
| 20260507063402 | 51 | 123 | 7.0 | 10.4 | 0.00 | 0.01 | 0.00 | 86 | 1015.8 |
| 20260507063302 | 51 | 139 | 6.1 | 10.4 | 0.00 | 0.01 | 0.00 | 86 | 1015.8 |
| 20260507063202 | 51 | 144 | 6.1 | 7.8 | 0.00 | 0.01 | 0.00 | 86 | 1015.8 |
| 20260507063102 | 51 | 140 | 7.0 | 10.4 | 0.00 | 0.01 | 0.00 | 86 | 1015.8 |
| 20260507063002 | 51 | 139 | 5.2 | 10.4 | 0.00 | 0.01 | 0.00 | 86 | 1015.8 |
| 20260507062902 | 51 | 154 | 5.2 | 6.1 | 0.00 | 0.01 | 0.00 | 86 | 1015.8 |
| 20260507062802 | 51 | 122 | 5.2 | 8.7 | 0.00 | 0.01 | 0.00 | 86 | 1015.8 |
| 20260507062702 | 51 | 126 | 5.2 | 7.0 | 0.00 | 0.01 | 0.00 | 86 | 1015.8 |
| 20260507062602 | 51 | 104 | 6.1 | 7.0 | 0.00 | 0.01 | 0.00 | 86 | 1015.8 |
| 20260507062502 | 51 | 113 | 5.2 | 7.8 | 0.00 | 0.01 | 0.00 | 86 | 1015.8 |
| 20260507062402 | 51 | 123 | 5.2 | 7.0 | 0.00 | 0.01 | 0.00 | 86 | 1015.8 |
| 20260507062305 | 51 | 127 | 6.1 | 6.1 | 0.00 | 0.01 | 0.00 | 86 | 1015.8 |
| 20260507062202 | 51 | 113 | 7.0 | 7.8 | 0.00 | 0.01 | 0.00 | 86 | 1015.8 |
| 20260507062102 | 51 | 103 | 6.1 | 8.7 | 0.00 | 0.01 | 0.00 | 86 | 1015.8 |
| 20260507062001 | 51 | 115 | 7.0 | 8.7 | 0.00 | 0.01 | 0.00 | 86 | 1015.8 |
| 20260507061831 | 51 | 108 | 6.1 | 7.0 | 0.00 | 0.01 | 0.00 | 86 | 1015.8 |
| 20260507061731 | 51 | 97 | 6.1 | 10.4 | 0.00 | 0.01 | 0.00 | 86 | 1015.8 |
| 20260507061631 | 51 | 99 | 6.1 | 7.8 | 0.00 | 0.01 | 0.00 | 86 | 1015.8 |
| 20260507061531 | 51 | 101 | 7.0 | 10.4 | 0.00 | 0.01 | 0.00 | 86 | 1015.8 |
| 20260507061431 | 51 | 102 | 6.1 | 8.7 | 0.00 | 0.01 | 0.00 | 86 | 1015.8 |
| 20260507061331 | 50 | 105 | 5.2 | 7.8 | 0.00 | 0.01 | 0.00 | 86 | 1015.8 |
| 20260507061231 | 50 | 96 | 5.2 | 7.0 | 0.00 | 0.01 | 0.00 | 86 | 1015.8 |
| 20260507061131 | 50 | 100 | 6.1 | 7.0 | 0.00 | 0.01 | 0.00 | 86 | 1015.8 |
| 20260507061031 | 50 | 90 | 7.0 | 10.4 | 0.00 | 0.01 | 0.00 | 85 | 1015.8 |
| 20260507060931 | 50 | 92 | 7.0 | 10.4 | 0.00 | 0.01 | 0.00 | 85 | 1015.8 |
| 20260507060831 | 50 | 92 | 7.0 | 10.4 | 0.00 | 0.01 | 0.00 | 85 | 1015.8 |
| 20260507060731 | 50 | 100 | 5.2 | 8.7 | 0.00 | 0.01 | 0.00 | 86 | 1015.8 |
| 20260507060631 | 50 | 101 | 5.2 | 7.0 | 0.00 | 0.01 | 0.00 | 86 | 1015.8 |
| 20260507060531 | 50 | 106 | 5.2 | 7.0 | 0.00 | 0.01 | 0.00 | 86 | 1015.8 |
| 20260507060430 | 50 | 115 | 6.1 | 7.8 | 0.00 | 0.01 | 0.00 | 86 | 1015.8 |
| 20260507060330 | 50 | 115 | 7.0 | 8.7 | 0.00 | 0.01 | 0.00 | 86 | 1015.8 |
| 20260507060230 | 50 | 108 | 6.1 | 8.7 | 0.00 | 0.01 | 0.00 | 86 | 1015.8 |
| 20260507060130 | 50 | 109 | 6.1 | 7.0 | 0.00 | 0.01 | 0.00 | 85 | 1015.8 |
| 20260507060030 | 50 | 110 | 6.1 | 7.0 | 0.00 | 0.01 | 0.00 | 85 | 1015.7 |
| 20260507055930 | 50 | 111 | 7.0 | 7.8 | 0.00 | 0.01 | 0.00 | 85 | 1015.7 |
| 20260507055830 | 50 | 105 | 6.1 | 10.4 | 0.00 | 0.01 | 0.00 | 85 | 1015.7 |
| 20260507055730 | 50 | 112 | 6.1 | 7.0 | 0.00 | 0.01 | 0.00 | 85 | 1015.7 |
| 20260507055630 | 50 | 104 | 7.0 | 7.8 | 0.00 | 0.01 | 0.00 | 85 | 1015.7 |
| 20260507055530 | 50 | 115 | 7.0 | 10.4 | 0.00 | 0.01 | 0.00 | 85 | 1015.7 |
| 20260507055430 | 50 | 113 | 7.0 | 10.4 | 0.00 | 0.01 | 0.00 | 85 | 1015.7 |
| 20260507055330 | 50 | 114 | 6.1 | 7.8 | 0.00 | 0.01 | 0.00 | 85 | 1015.7 |
| 20260507055230 | 50 | 111 | 5.2 | 8.7 | 0.00 | 0.01 | 0.00 | 85 | 1015.7 |
| 20260507055130 | 50 | 103 | 6.1 | 7.0 | 0.00 | 0.01 | 0.00 | 85 | 1015.7 |
| 20260507055029 | 50 | 106 | 7.0 | 7.8 | 0.00 | 0.01 | 0.00 | 85 | 1015.6 |
| 20260507054929 | 50 | 101 | 6.1 | 10.4 | 0.00 | 0.01 | 0.00 | 85 | 1015.6 |
| 20260507054829 | 50 | 99 | 6.1 | 7.8 | 0.00 | 0.01 | 0.00 | 85 | 1015.6 |
| 20260507054729 | 50 | 104 | 6.1 | 7.8 | 0.00 | 0.01 | 0.00 | 85 | 1015.6 |
| 20260507054629 | 50 | 106 | 5.2 | 8.7 | 0.00 | 0.01 | 0.00 | 85 | 1015.6 |
| 20260507054529 | 50 | 107 | 5.2 | 6.1 | 0.00 | 0.01 | 0.00 | 85 | 1015.6 |
| 20260507054429 | 50 | 110 | 5.2 | 5.2 | 0.00 | 0.01 | 0.00 | 85 | 1015.5 |
| 20260507054259 | 50 | 111 | 7.0 | 10.4 | 0.00 | 0.01 | 0.00 | 84 | 1015.5 |
| 20260507054159 | 50 | 118 | 6.1 | 8.7 | 0.00 | 0.01 | 0.00 | 84 | 1015.5 |
| 20260507054059 | 50 | 113 | 6.1 | 7.8 | 0.00 | 0.01 | 0.00 | 84 | 1015.5 |
| 20260507053959 | 50 | 112 | 7.0 | 7.8 | 0.00 | 0.01 | 0.00 | 84 | 1015.5 |
| 20260507053859 | 50 | 116 | 7.0 | 10.4 | 0.00 | 0.01 | 0.00 | 84 | 1015.5 |
| 20260507053759 | 50 | 108 | 6.1 | 8.7 | 0.00 | 0.01 | 0.00 | 84 | 1015.5 |
| 20260507053659 | 50 | 110 | 6.1 | 7.8 | 0.00 | 0.01 | 0.00 | 84 | 1015.5 |
| 20260507053559 | 50 | 118 | 6.1 | 7.8 | 0.00 | 0.01 | 0.00 | 84 | 1015.5 |
| 20260507053459 | 50 | 112 | 7.0 | 10.4 | 0.00 | 0.01 | 0.00 | 84 | 1015.5 |
| 20260507053358 | 50 | 113 | 5.2 | 11.3 | 0.00 | 0.01 | 0.00 | 84 | 1015.5 |
| 20260507053258 | 50 | 111 | 6.1 | 7.0 | 0.00 | 0.01 | 0.00 | 84 | 1015.4 |
| 20260507053158 | 50 | 102 | 5.2 | 7.8 | 0.00 | 0.01 | 0.00 | 84 | 1015.4 |
| 20260507053058 | 50 | 105 | 6.1 | 6.1 | 0.00 | 0.01 | 0.00 | 84 | 1015.4 |
| 20260507052958 | 50 | 93 | 7.0 | 7.8 | 0.00 | 0.01 | 0.00 | 84 | 1015.4 |
| 20260507052858 | 50 | 110 | 7.0 | 10.4 | 0.00 | 0.01 | 0.00 | 84 | 1015.4 |
| 20260507052758 | 50 | 116 | 7.0 | 8.7 | 0.00 | 0.01 | 0.00 | 84 | 1015.4 |
| 20260507052658 | 50 | 107 | 5.2 | 8.7 | 0.00 | 0.01 | 0.00 | 84 | 1015.4 |
| 20260507052558 | 50 | 102 | 5.2 | 7.0 | 0.00 | 0.01 | 0.00 | 84 | 1015.4 |
| 20260507052458 | 50 | 108 | 7.0 | 7.8 | 0.00 | 0.01 | 0.00 | 84 | 1015.4 |
| 20260507052358 | 50 | 103 | 6.1 | 8.7 | 0.00 | 0.01 | 0.00 | 84 | 1015.4 |
| 20260507052258 | 50 | 101 | 6.1 | 7.0 | 0.00 | 0.01 | 0.00 | 84 | 1015.4 |
| 20260507052158 | 50 | 95 | 6.1 | 7.8 | 0.00 | 0.01 | 0.00 | 84 | 1015.4 |
| 20260507052058 | 50 | 100 | 7.0 | 10.4 | 0.00 | 0.01 | 0.00 | 84 | 1015.4 |
| 20260507051958 | 50 | 108 | 7.0 | 8.7 | 0.00 | 0.01 | 0.00 | 84 | 1015.4 |
| 20260507051857 | 50 | 105 | 6.1 | 10.4 | 0.00 | 0.01 | 0.00 | 84 | 1015.4 |
| 20260507051757 | 50 | 105 | 6.1 | 7.8 | 0.00 | 0.01 | 0.00 | 84 | 1015.4 |
| 20260507051657 | 50 | 103 | 7.0 | 8.7 | 0.00 | 0.01 | 0.00 | 84 | 1015.4 |
| 20260507051557 | 50 | 112 | 7.0 | 7.8 | 0.00 | 0.01 | 0.00 | 84 | 1015.3 |
| 20260507051457 | 50 | 102 | 7.0 | 10.4 | 0.00 | 0.01 | 0.00 | 84 | 1015.3 |
| 20260507051357 | 50 | 105 | 7.0 | 10.4 | 0.00 | 0.01 | 0.00 | 84 | 1015.3 |
| 20260507051257 | 50 | 101 | 7.0 | 8.7 | 0.00 | 0.01 | 0.00 | 84 | 1015.3 |
| 20260507051157 | 50 | 92 | 6.1 | 8.7 | 0.00 | 0.01 | 0.00 | 84 | 1015.3 |
| 20260507051057 | 50 | 103 | 5.2 | 10.4 | 0.00 | 0.01 | 0.00 | 84 | 1015.3 |
| 20260507050957 | 50 | 100 | 5.2 | 5.2 | 0.00 | 0.01 | 0.00 | 84 | 1015.3 |
| 20260507050857 | 50 | 91 | 5.2 | 6.1 | 0.00 | 0.01 | 0.00 | 84 | 1015.3 |
| 20260507050757 | 50 | 96 | 6.1 | 7.0 | 0.00 | 0.01 | 0.00 | 84 | 1015.3 |
| 20260507050657 | 50 | 89 | 7.0 | 7.8 | 0.00 | 0.01 | 0.00 | 84 | 1015.3 |
| 20260507050557 | 50 | 92 | 7.0 | 10.4 | 0.00 | 0.01 | 0.00 | 83 | 1015.3 |
| 20260507050457 | 50 | 102 | 6.1 | 8.7 | 0.00 | 0.01 | 0.00 | 83 | 1015.3 |
| 20260507050356 | 50 | 87 | 5.2 | 7.0 | 0.00 | 0.01 | 0.00 | 83 | 1015.3 |
| 20260507050256 | 50 | 90 | 5.2 | 6.1 | 0.00 | 0.01 | 0.00 | 83 | 1015.4 |
| 20260507050156 | 50 | 91 | 5.2 | 7.0 | 0.00 | 0.01 | 0.00 | 83 | 1015.4 |
| 20260507050056 | 50 | 104 | 5.2 | 7.0 | 0.00 | 0.01 | 0.00 | 83 | 1015.3 |
| 20260507045956 | 50 | 94 | 5.2 | 7.0 | 0.00 | 0.01 | 0.00 | 83 | 1015.3 |
| 20260507045826 | 50 | 90 | 5.2 | 7.0 | 0.00 | 0.01 | 0.00 | 83 | 1015.3 |
| 20260507045726 | 50 | 108 | 6.1 | 6.1 | 0.00 | 0.01 | 0.00 | 83 | 1015.3 |
| 20260507045626 | 50 | 89 | 6.1 | 7.8 | 0.00 | 0.01 | 0.00 | 83 | 1015.3 |
| 20260507045526 | 50 | 100 | 6.1 | 8.7 | 0.00 | 0.01 | 0.00 | 83 | 1015.4 |
| 20260507045426 | 50 | 83 | 6.1 | 7.8 | 0.00 | 0.01 | 0.00 | 83 | 1015.4 |
| 20260507045326 | 50 | 95 | 5.2 | 7.8 | 0.00 | 0.01 | 0.00 | 83 | 1015.3 |
| 20260507045226 | 50 | 92 | 5.2 | 6.1 | 0.00 | 0.01 | 0.00 | 83 | 1015.3 |
| 20260507045126 | 49 | 90 | 6.1 | 7.0 | 0.00 | 0.01 | 0.00 | 83 | 1015.3 |
| 20260507045026 | 50 | 92 | 6.1 | 7.0 | 0.00 | 0.01 | 0.00 | 83 | 1015.3 |
| 20260507044926 | 49 | 89 | 6.1 | 7.8 | 0.00 | 0.01 | 0.00 | 83 | 1015.3 |
| 20260507044826 | 49 | 85 | 5.2 | 7.8 | 0.00 | 0.01 | 0.00 | 82 | 1015.3 |
| 20260507044725 | 50 | 81 | 6.1 | 6.1 | 0.00 | 0.01 | 0.00 | 82 | 1015.2 |
| 20260507044625 | 50 | 78 | 5.2 | 7.0 | 0.00 | 0.01 | 0.00 | 82 | 1015.3 |
| 20260507044525 | 50 | 81 | 5.2 | 7.0 | 0.00 | 0.01 | 0.00 | 82 | 1015.2 |
| 20260507044425 | 50 | 87 | 5.2 | 7.0 | 0.00 | 0.01 | 0.00 | 82 | 1015.2 |
| 20260507044325 | 50 | 91 | 6.1 | 7.8 | 0.00 | 0.01 | 0.00 | 82 | 1015.2 |
| 20260507044225 | 50 | 92 | 6.1 | 7.8 | 0.00 | 0.01 | 0.00 | 82 | 1015.3 |
| 20260507044125 | 50 | 91 | 7.0 | 8.7 | 0.00 | 0.01 | 0.00 | 82 | 1015.3 |
| 20260507044025 | 50 | 91 | 6.1 | 7.8 | 0.00 | 0.01 | 0.00 | 82 | 1015.2 |
| 20260507043925 | 50 | 92 | 7.0 | 7.8 | 0.00 | 0.01 | 0.00 | 82 | 1015.2 |
| 20260507043825 | 50 | 93 | 7.0 | 8.7 | 0.00 | 0.01 | 0.00 | 82 | 1015.2 |
| 20260507043725 | 50 | 102 | 6.1 | 7.8 | 0.00 | 0.01 | 0.00 | 82 | 1015.2 |
| 20260507043625 | 50 | 94 | 6.1 | 7.0 | 0.00 | 0.01 | 0.00 | 82 | 1015.2 |
| 20260507043525 | 50 | 101 | 6.1 | 7.0 | 0.00 | 0.01 | 0.00 | 82 | 1015.2 |
| 20260507043425 | 50 | 102 | 6.1 | 7.8 | 0.00 | 0.02 | 0.00 | 82 | 1015.2 |
| 20260507043325 | 50 | 97 | 6.1 | 7.0 | 0.00 | 0.02 | 0.00 | 82 | 1015.2 |
| 20260507043224 | 50 | 90 | 6.1 | 7.0 | 0.00 | 0.02 | 0.00 | 82 | 1015.2 |
| 20260507043124 | 50 | 91 | 7.0 | 7.8 | 0.00 | 0.02 | 0.00 | 82 | 1015.2 |
| 20260507043024 | 49 | 86 | 6.1 | 8.7 | 0.00 | 0.02 | 0.00 | 81 | 1015.2 |
| 20260507042924 | 49 | 109 | 6.1 | 7.8 | 0.00 | 0.02 | 0.00 | 81 | 1015.1 |
| 20260507042824 | 49 | 102 | 6.1 | 6.1 | 0.00 | 0.02 | 0.00 | 81 | 1015.2 |
| 20260507042724 | 49 | 84 | 6.1 | 7.8 | 0.00 | 0.02 | 0.00 | 81 | 1015.2 |
| 20260507042624 | 50 | 85 | 5.2 | 7.0 | 0.00 | 0.02 | 0.00 | 81 | 1015.1 |
| 20260507042524 | 50 | 95 | 6.1 | 7.0 | 0.00 | 0.02 | 0.00 | 81 | 1015.2 |
| 20260507042424 | 50 | 90 | 7.0 | 7.8 | 0.00 | 0.02 | 0.00 | 81 | 1015.2 |
| 20260507042324 | 50 | 83 | 7.0 | 8.7 | 0.00 | 0.02 | 0.00 | 81 | 1015.1 |
| 20260507042224 | 50 | 90 | 6.1 | 8.7 | 0.00 | 0.02 | 0.00 | 81 | 1015.1 |
| 20260507042054 | 50 | 90 | 6.1 | 8.7 | 0.00 | 0.02 | 0.00 | 81 | 1015.1 |
| 20260507041954 | 50 | 93 | 5.2 | 7.8 | 0.00 | 0.02 | 0.00 | 81 | 1015.1 |
| 20260507041853 | 50 | 94 | 6.1 | 7.0 | 0.00 | 0.02 | 0.00 | 81 | 1015.1 |
| 20260507041753 | 50 | 93 | 6.1 | 7.8 | 0.00 | 0.02 | 0.00 | 81 | 1015.1 |
| 20260507041623 | 50 | 91 | 6.1 | 7.8 | 0.00 | 0.02 | 0.00 | 81 | 1015.1 |
| 20260507041523 | 50 | 85 | 7.0 | 8.7 | 0.00 | 0.02 | 0.00 | 81 | 1015.1 |
| 20260507041423 | 50 | 91 | 7.0 | 8.7 | 0.00 | 0.02 | 0.00 | 80 | 1015.1 |
| 20260507041323 | 50 | 88 | 7.0 | 8.7 | 0.00 | 0.02 | 0.00 | 80 | 1015.1 |
| 20260507041223 | 50 | 100 | 7.0 | 8.7 | 0.00 | 0.02 | 0.00 | 80 | 1015.1 |
| 20260507041123 | 50 | 94 | 7.0 | 8.7 | 0.00 | 0.02 | 0.00 | 80 | 1015.1 |
| 20260507041023 | 50 | 97 | 7.0 | 7.8 | 0.00 | 0.02 | 0.00 | 80 | 1015.1 |
| 20260507040853 | 50 | 101 | 6.1 | 7.0 | 0.00 | 0.02 | 0.00 | 80 | 1015.1 |
| 20260507040753 | 50 | 92 | 7.0 | 7.8 | 0.00 | 0.02 | 0.00 | 80 | 1015.0 |
| 20260507040653 | 50 | 91 | 7.0 | 7.8 | 0.00 | 0.02 | 0.00 | 80 | 1015.1 |
| 20260507040553 | 50 | 92 | 7.0 | 8.7 | 0.00 | 0.02 | 0.00 | 79 | 1015.1 |
| 20260507040452 | 50 | 84 | 6.1 | 7.8 | 0.00 | 0.02 | 0.00 | 80 | 1015.0 |
| 20260507040352 | 50 | 91 | 7.0 | 7.8 | 0.00 | 0.02 | 0.00 | 79 | 1015.1 |
| 20260507040252 | 50 | 90 | 7.0 | 8.7 | 0.00 | 0.02 | 0.00 | 79 | 1015.1 |
| 20260507040152 | 50 | 91 | 6.1 | 8.7 | 0.00 | 0.02 | 0.00 | 79 | 1015.1 |
| 20260507040052 | 50 | 89 | 7.0 | 7.8 | 0.00 | 0.02 | 0.00 | 79 | 1015.1 |
| 20260507035952 | 50 | 90 | 7.0 | 7.8 | 0.00 | 0.02 | 0.00 | 79 | 1015.1 |
| 20260507035852 | 50 | 87 | 7.0 | 10.4 | 0.00 | 0.02 | 0.00 | 79 | 1015.0 |
| 20260507035752 | 50 | 83 | 7.8 | 10.4 | 0.00 | 0.02 | 0.00 | 79 | 1015.0 |
| 20260507035652 | 50 | 87 | 7.8 | 11.3 | 0.00 | 0.02 | 0.00 | 79 | 1015.0 |
| 20260507035552 | 50 | 90 | 7.0 | 8.7 | 0.00 | 0.02 | 0.00 | 79 | 1015.1 |
| 20260507035452 | 50 | 90 | 7.0 | 8.7 | 0.00 | 0.02 | 0.00 | 79 | 1015.0 |
| 20260507035352 | 50 | 102 | 7.0 | 10.4 | 0.00 | 0.02 | 0.00 | 79 | 1015.0 |
| 20260507035252 | 50 | 91 | 7.0 | 8.7 | 0.00 | 0.02 | 0.00 | 79 | 1015.0 |
| 20260507035152 | 50 | 92 | 7.0 | 7.8 | 0.00 | 0.02 | 0.00 | 79 | 1015.0 |
| 20260507035052 | 50 | 94 | 7.0 | 8.7 | 0.00 | 0.02 | 0.00 | 79 | 1015.0 |
| 20260507034952 | 50 | 98 | 6.1 | 10.4 | 0.00 | 0.02 | 0.00 | 79 | 1015.0 |
| 20260507034852 | 50 | 98 | 6.1 | 7.0 | 0.00 | 0.02 | 0.00 | 79 | 1015.0 |
| 20260507034751 | 50 | 91 | 7.8 | 8.7 | 0.00 | 0.02 | 0.00 | 79 | 1015.0 |
| 20260507034651 | 50 | 101 | 7.0 | 10.4 | 0.00 | 0.02 | 0.00 | 79 | 1015.0 |
| 20260507034551 | 50 | 103 | 6.1 | 7.8 | 0.00 | 0.02 | 0.00 | 79 | 1015.0 |
| 20260507034451 | 50 | 107 | 7.0 | 7.8 | 0.00 | 0.02 | 0.00 | 79 | 1015.0 |
| 20260507034351 | 50 | 97 | 7.0 | 10.4 | 0.00 | 0.02 | 0.00 | 79 | 1015.0 |
| 20260507034251 | 50 | 90 | 7.0 | 8.7 | 0.00 | 0.02 | 0.00 | 79 | 1015.0 |
| 20260507034151 | 50 | 87 | 7.0 | 8.7 | 0.00 | 0.02 | 0.00 | 79 | 1015.0 |
| 20260507034051 | 50 | 85 | 7.0 | 8.7 | 0.00 | 0.02 | 0.00 | 79 | 1015.0 |
| 20260507033951 | 50 | 89 | 6.1 | 10.4 | 0.00 | 0.02 | 0.00 | 79 | 1015.0 |
| 20260507033851 | 50 | 92 | 7.8 | 8.7 | 0.00 | 0.02 | 0.00 | 79 | 1015.0 |
| 20260507033751 | 50 | 91 | 7.0 | 10.4 | 0.00 | 0.02 | 0.00 | 79 | 1015.0 |
| 20260507033651 | 50 | 88 | 7.0 | 7.8 | 0.00 | 0.02 | 0.00 | 79 | 1014.9 |
| 20260507033551 | 50 | 87 | 6.1 | 7.8 | 0.00 | 0.02 | 0.00 | 79 | 1015.0 |
| 20260507033451 | 49 | 87 | 7.0 | 7.8 | 0.00 | 0.02 | 0.00 | 79 | 1014.9 |
| 20260507033351 | 50 | 83 | 6.1 | 8.7 | 0.00 | 0.02 | 0.00 | 79 | 1015.0 |
| 20260507033251 | 50 | 84 | 6.1 | 7.8 | 0.00 | 0.02 | 0.00 | 79 | 1014.9 |
| 20260507033151 | 50 | 82 | 6.1 | 8.7 | 0.00 | 0.02 | 0.00 | 79 | 1015.0 |
| 20260507033050 | 50 | 88 | 6.1 | 7.8 | 0.00 | 0.02 | 0.00 | 79 | 1014.9 |
| 20260507032950 | 50 | 82 | 5.2 | 7.0 | 0.00 | 0.02 | 0.00 | 79 | 1014.9 |
| 20260507032850 | 50 | 79 | 6.1 | 6.1 | 0.00 | 0.02 | 0.00 | 79 | 1014.9 |
| 20260507032750 | 50 | 82 | 6.1 | 7.8 | 0.00 | 0.02 | 0.00 | 79 | 1014.9 |
| 20260507032650 | 50 | 81 | 6.1 | 7.0 | 0.00 | 0.02 | 0.00 | 79 | 1014.9 |
| 20260507032550 | 50 | 73 | 6.1 | 7.8 | 0.00 | 0.02 | 0.00 | 78 | 1015.0 |
| 20260507032450 | 50 | 82 | 7.0 | 7.8 | 0.00 | 0.02 | 0.00 | 78 | 1014.9 |
| 20260507032350 | 50 | 82 | 7.0 | 8.7 | 0.00 | 0.02 | 0.00 | 78 | 1015.0 |
| 20260507032250 | 50 | 78 | 6.1 | 7.8 | 0.00 | 0.02 | 0.00 | 78 | 1015.0 |
| 20260507032150 | 50 | 84 | 6.1 | 7.8 | 0.00 | 0.02 | 0.00 | 78 | 1015.0 |
| 20260507032050 | 50 | 77 | 5.2 | 7.0 | 0.00 | 0.02 | 0.00 | 78 | 1015.0 |
| 20260507031950 | 50 | 84 | 6.1 | 7.0 | 0.00 | 0.02 | 0.00 | 78 | 1015.0 |
| 20260507031850 | 50 | 87 | 6.1 | 7.8 | 0.00 | 0.02 | 0.00 | 78 | 1014.9 |
| 20260507031749 | 50 | 92 | 6.1 | 7.8 | 0.00 | 0.02 | 0.00 | 78 | 1014.9 |
| 20260507031649 | 50 | 86 | 7.0 | 7.8 | 0.00 | 0.02 | 0.00 | 78 | 1015.0 |
| 20260507031549 | 50 | 83 | 7.0 | 8.7 | 0.00 | 0.02 | 0.00 | 78 | 1014.9 |
| 20260507031449 | 50 | 85 | 7.0 | 8.7 | 0.00 | 0.02 | 0.00 | 78 | 1015.0 |
| 20260507031349 | 50 | 83 | 6.1 | 8.7 | 0.00 | 0.02 | 0.00 | 78 | 1014.9 |
| 20260507031249 | 50 | 83 | 7.0 | 8.7 | 0.00 | 0.02 | 0.00 | 78 | 1015.0 |
| 20260507031149 | 50 | 83 | 7.0 | 10.4 | 0.00 | 0.02 | 0.00 | 78 | 1015.0 |
| 20260507031049 | 50 | 85 | 6.1 | 10.4 | 0.00 | 0.02 | 0.00 | 78 | 1015.0 |
| 20260507030949 | 50 | 87 | 7.0 | 7.8 | 0.00 | 0.02 | 0.00 | 78 | 1015.0 |
| 20260507030849 | 50 | 92 | 6.1 | 8.7 | 0.00 | 0.02 | 0.00 | 79 | 1014.9 |
| 20260507030749 | 50 | 86 | 6.1 | 6.1 | 0.00 | 0.02 | 0.00 | 79 | 1015.0 |
| 20260507030649 | 50 | 83 | 6.1 | 7.8 | 0.00 | 0.02 | 0.00 | 79 | 1014.9 |
| 20260507030549 | 50 | 86 | 6.1 | 7.8 | 0.00 | 0.02 | 0.00 | 79 | 1014.9 |
| 20260507030449 | 49 | 87 | 6.1 | 7.0 | 0.00 | 0.02 | 0.00 | 79 | 1014.9 |
| 20260507030349 | 49 | 80 | 5.2 | 7.8 | 0.00 | 0.02 | 0.00 | 79 | 1014.9 |
| 20260507030248 | 49 | 81 | 6.1 | 7.0 | 0.00 | 0.02 | 0.00 | 79 | 1014.9 |
| 20260507030148 | 49 | 82 | 6.1 | 7.8 | 0.00 | 0.02 | 0.00 | 79 | 1014.9 |
| 20260507030048 | 49 | 77 | 5.2 | 8.7 | 0.00 | 0.02 | 0.00 | 79 | 1015.0 |
| 20260507025918 | 49 | 85 | 6.1 | 7.0 | 0.00 | 0.02 | 0.00 | 79 | 1015.0 |
| 20260507025818 | 49 | 82 | 6.1 | 7.0 | 0.00 | 0.02 | 0.00 | 79 | 1015.0 |
| 20260507025718 | 49 | 76 | 6.1 | 8.7 | 0.00 | 0.02 | 0.00 | 79 | 1014.9 |
| 20260507025618 | 49 | 78 | 6.1 | 7.8 | 0.00 | 0.02 | 0.00 | 79 | 1014.9 |
| 20260507025518 | 49 | 78 | 6.1 | 7.8 | 0.00 | 0.02 | 0.00 | 79 | 1014.9 |
| 20260507025418 | 49 | 80 | 5.2 | 7.0 | 0.00 | 0.02 | 0.00 | 79 | 1014.9 |
| 20260507025248 | 49 | 79 | 5.2 | 6.1 | 0.00 | 0.02 | 0.00 | 79 | 1014.9 |
| 20260507025148 | 50 | 78 | 5.2 | 6.1 | 0.00 | 0.02 | 0.00 | 79 | 1014.9 |
| 20260507025048 | 50 | 84 | 5.2 | 7.0 | 0.00 | 0.02 | 0.00 | 79 | 1014.9 |
| 20260507024948 | 50 | 81 | 6.1 | 7.8 | 0.00 | 0.02 | 0.00 | 79 | 1014.9 |
| 20260507024818 | 50 | 81 | 5.2 | 7.0 | 0.00 | 0.02 | 0.00 | 79 | 1014.9 |
| 20260507024718 | 50 | 87 | 5.2 | 7.0 | 0.00 | 0.02 | 0.00 | 78 | 1014.9 |
| 20260507024617 | 50 | 85 | 5.2 | 6.1 | 0.00 | 0.02 | 0.00 | 79 | 1014.9 |
| 20260507024517 | 50 | 82 | 5.2 | 7.0 | 0.00 | 0.02 | 0.00 | 79 | 1014.9 |
| 20260507024417 | 50 | 83 | 5.2 | 7.0 | 0.00 | 0.02 | 0.00 | 78 | 1014.9 |
| 20260507024317 | 50 | 78 | 5.2 | 6.1 | 0.00 | 0.02 | 0.00 | 78 | 1014.9 |
| 20260507024217 | 50 | 81 | 5.2 | 7.0 | 0.00 | 0.02 | 0.00 | 78 | 1014.9 |
| 20260507024117 | 50 | 82 | 5.2 | 7.0 | 0.00 | 0.02 | 0.00 | 78 | 1014.9 |
| 20260507024017 | 50 | 74 | 6.1 | 7.0 | 0.00 | 0.02 | 0.00 | 78 | 1014.9 |
| 20260507023917 | 50 | 82 | 6.1 | 7.8 | 0.00 | 0.02 | 0.00 | 78 | 1014.9 |
| 20260507023817 | 50 | 83 | 5.2 | 8.7 | 0.00 | 0.02 | 0.00 | 78 | 1014.9 |
| 20260507023717 | 50 | 88 | 5.2 | 6.1 | 0.00 | 0.02 | 0.00 | 78 | 1014.9 |
| 20260507023617 | 50 | 91 | 5.2 | 5.2 | 0.00 | 0.02 | 0.00 | 78 | 1014.9 |
| 20260507023517 | 50 | 90 | 4.3 | 7.0 | 0.00 | 0.02 | 0.00 | 78 | 1014.9 |
| 20260507023417 | 50 | 91 | 4.3 | 6.1 | 0.00 | 0.02 | 0.00 | 78 | 1014.9 |
| 20260507023317 | 50 | 92 | 5.2 | 6.1 | 0.00 | 0.02 | 0.00 | 77 | 1014.9 |
| 20260507023216 | 50 | 85 | 5.2 | 6.1 | 0.00 | 0.02 | 0.00 | 77 | 1014.8 |
| 20260507023116 | 50 | 87 | 5.2 | 6.1 | 0.00 | 0.02 | 0.00 | 77 | 1014.9 |
| 20260507023016 | 50 | 88 | 5.2 | 6.1 | 0.00 | 0.02 | 0.00 | 77 | 1014.9 |
| 20260507022916 | 50 | 91 | 5.2 | 6.1 | 0.00 | 0.02 | 0.00 | 77 | 1014.9 |
| 20260507022816 | 50 | 93 | 5.2 | 6.1 | 0.00 | 0.02 | 0.00 | 77 | 1014.9 |
| 20260507022716 | 50 | 89 | 4.3 | 6.1 | 0.00 | 0.02 | 0.00 | 77 | 1014.9 |
| 20260507022616 | 50 | 94 | 4.3 | 5.2 | 0.00 | 0.02 | 0.00 | 77 | 1014.9 |
| 20260507022516 | 50 | 96 | 4.3 | 6.1 | 0.00 | 0.02 | 0.00 | 77 | 1014.9 |
| 20260507022416 | 50 | 96 | 5.2 | 7.0 | 0.00 | 0.02 | 0.00 | 77 | 1014.9 |
| 20260507022316 | 50 | 91 | 5.2 | 7.0 | 0.00 | 0.02 | 0.00 | 77 | 1014.9 |
| 20260507022216 | 50 | 88 | 4.3 | 6.1 | 0.00 | 0.02 | 0.00 | 77 | 1014.8 |
| 20260507022116 | 50 | 89 | 4.3 | 6.1 | 0.00 | 0.02 | 0.00 | 77 | 1014.9 |
| 20260507022016 | 50 | 95 | 5.2 | 5.2 | 0.00 | 0.02 | 0.00 | 77 | 1014.9 |
| 20260507021916 | 50 | 103 | 5.2 | 6.1 | 0.00 | 0.02 | 0.00 | 77 | 1014.9 |
| 20260507021816 | 50 | 96 | 4.3 | 6.1 | 0.00 | 0.02 | 0.00 | 77 | 1014.9 |
| 20260507021716 | 50 | 96 | 4.3 | 5.2 | 0.00 | 0.02 | 0.00 | 77 | 1014.9 |
| 20260507021615 | 50 | 97 | 5.2 | 6.1 | 0.00 | 0.02 | 0.00 | 78 | 1014.9 |
| 20260507021515 | 50 | 99 | 5.2 | 6.1 | 0.00 | 0.02 | 0.00 | 78 | 1014.9 |
| 20260507021415 | 50 | 87 | 4.3 | 6.1 | 0.00 | 0.02 | 0.00 | 78 | 1014.9 |
| 20260507021316 | 50 | 88 | 4.3 | 5.2 | 0.00 | 0.02 | 0.00 | 78 | 1014.9 |
| 20260507021215 | 50 | 88 | 4.3 | 7.0 | 0.00 | 0.02 | 0.00 | 78 | 1014.9 |
| 20260507021115 | 50 | 82 | 4.3 | 6.1 | 0.00 | 0.02 | 0.00 | 78 | 1014.8 |
| 20260507021015 | 50 | 76 | 4.3 | 6.1 | 0.00 | 0.02 | 0.00 | 78 | 1014.8 |
| 20260507020915 | 50 | 75 | 4.3 | 5.2 | 0.00 | 0.02 | 0.00 | 78 | 1014.9 |
| 20260507020815 | 50 | 73 | 4.3 | 5.2 | 0.00 | 0.02 | 0.00 | 78 | 1014.9 |
| 20260507020715 | 50 | 78 | 4.3 | 5.2 | 0.00 | 0.02 | 0.00 | 78 | 1014.9 |
| 20260507020615 | 50 | 78 | 4.3 | 6.1 | 0.00 | 0.02 | 0.00 | 78 | 1014.9 |
| 20260507020515 | 50 | 85 | 5.2 | 6.1 | 0.00 | 0.02 | 0.00 | 78 | 1014.9 |
| 20260507020415 | 50 | 82 | 4.3 | 6.1 | 0.00 | 0.02 | 0.00 | 77 | 1014.9 |
| 20260507020315 | 50 | 84 | 2.6 | 5.2 | 0.00 | 0.02 | 0.00 | 77 | 1014.9 |
| 20260507020215 | 50 | 85 | 2.6 | 4.3 | 0.00 | 0.02 | 0.00 | 77 | 1014.9 |
| 20260507020115 | 50 | 85 | 4.3 | 2.6 | 0.00 | 0.02 | 0.00 | 77 | 1014.9 |
| 20260507020015 | 50 | 84 | 4.3 | 5.2 | 0.00 | 0.02 | 0.00 | 77 | 1014.9 |
| 20260507015915 | 50 | 92 | 2.6 | 4.3 | 0.00 | 0.02 | 0.00 | 77 | 1014.9 |
| 20260507015814 | 50 | 88 | 2.6 | 4.3 | 0.00 | 0.02 | 0.00 | 77 | 1014.9 |
| 20260507015714 | 50 | 87 | 2.6 | 4.3 | 0.00 | 0.02 | 0.00 | 77 | 1014.9 |
| 20260507015614 | 50 | 87 | 4.3 | 4.3 | 0.00 | 0.02 | 0.00 | 77 | 1014.9 |
| 20260507015514 | 50 | 84 | 4.3 | 4.3 | 0.00 | 0.02 | 0.00 | 77 | 1014.9 |
| 20260507015414 | 50 | 83 | 4.3 | 5.2 | 0.00 | 0.02 | 0.00 | 77 | 1014.9 |
| 20260507015314 | 50 | 82 | 4.3 | 5.2 | 0.00 | 0.02 | 0.00 | 77 | 1015.0 |
| 20260507015214 | 50 | 81 | 4.3 | 5.2 | 0.00 | 0.02 | 0.00 | 77 | 1014.9 |
| 20260507015114 | 50 | 78 | 4.3 | 4.3 | 0.00 | 0.02 | 0.00 | 77 | 1014.9 |
| 20260507015014 | 50 | 84 | 4.3 | 4.3 | 0.00 | 0.02 | 0.00 | 77 | 1014.9 |
| 20260507014914 | 50 | 80 | 2.6 | 4.3 | 0.00 | 0.02 | 0.00 | 77 | 1014.9 |
| 20260507014814 | 50 | 76 | 4.3 | 2.6 | 0.00 | 0.02 | 0.00 | 77 | 1014.9 |
| 20260507014714 | 50 | 80 | 2.6 | 4.3 | 0.00 | 0.02 | 0.00 | 77 | 1014.9 |
| 20260507014614 | 50 | 80 | 2.6 | 2.6 | 0.00 | 0.02 | 0.00 | 77 | 1014.9 |
| 20260507014514 | 50 | 76 | 4.3 | 4.3 | 0.00 | 0.02 | 0.00 | 77 | 1014.9 |
| 20260507014413 | 50 | 76 | 4.3 | 5.2 | 0.00 | 0.02 | 0.00 | 77 | 1014.9 |
| 20260507014313 | 50 | 77 | 4.3 | 4.3 | 0.00 | 0.02 | 0.00 | 77 | 1014.9 |
| 20260507014213 | 50 | 81 | 2.6 | 5.2 | 0.00 | 0.02 | 0.00 | 77 | 1014.9 |
| 20260507014113 | 50 | 81 | 2.6 | 2.6 | 0.00 | 0.02 | 0.00 | 77 | 1014.9 |
| 20260507014013 | 50 | 83 | 2.6 | 4.3 | 0.00 | 0.02 | 0.00 | 78 | 1014.9 |
| 20260507013913 | 50 | 81 | 2.6 | 2.6 | 0.00 | 0.02 | 0.00 | 78 | 1014.9 |
| 20260507013813 | 50 | 76 | 2.6 | 2.6 | 0.00 | 0.02 | 0.00 | 78 | 1014.9 |
| 20260507013713 | 50 | 75 | 2.6 | 4.3 | 0.00 | 0.02 | 0.00 | 78 | 1014.9 |
| 20260507013613 | 50 | 74 | 4.3 | 4.3 | 0.00 | 0.02 | 0.00 | 78 | 1014.9 |
| 20260507013513 | 50 | 72 | 4.3 | 5.2 | 0.00 | 0.02 | 0.00 | 78 | 1014.9 |
| 20260507013413 | 50 | 82 | 2.6 | 4.3 | 0.00 | 0.02 | 0.00 | 78 | 1014.9 |
| 20260507013312 | 50 | 71 | 2.6 | 2.6 | 0.00 | 0.02 | 0.00 | 78 | 1014.9 |
| 20260507013212 | 50 | 71 | 4.3 | 5.2 | 0.00 | 0.02 | 0.00 | 79 | 1014.9 |
| 20260507013112 | 50 | 68 | 4.3 | 5.2 | 0.00 | 0.02 | 0.00 | 79 | 1014.9 |
| 20260507013012 | 50 | 68 | 2.6 | 5.2 | 0.00 | 0.02 | 0.00 | 79 | 1014.9 |
| 20260507012912 | 50 | 67 | 2.6 | 2.6 | 0.00 | 0.02 | 0.00 | 79 | 1015.0 |
| 20260507012812 | 50 | 67 | 2.6 | 2.6 | 0.00 | 0.02 | 0.00 | 79 | 1014.9 |
| 20260507012712 | 50 | 68 | 2.6 | 2.6 | 0.00 | 0.02 | 0.00 | 78 | 1014.9 |
| 20260507012612 | 50 | 65 | 2.6 | 2.6 | 0.00 | 0.02 | 0.00 | 78 | 1014.9 |
| 20260507012512 | 50 | 63 | 4.3 | 4.3 | 0.00 | 0.02 | 0.00 | 78 | 1015.0 |
| 20260507012412 | 50 | 62 | 4.3 | 4.3 | 0.00 | 0.02 | 0.00 | 78 | 1014.9 |
| 20260507012312 | 50 | 62 | 4.3 | 4.3 | 0.00 | 0.02 | 0.00 | 78 | 1014.9 |
| 20260507012212 | 50 | 62 | 2.6 | 4.3 | 0.00 | 0.02 | 0.00 | 78 | 1014.9 |
| 20260507012112 | 50 | 59 | 1.7 | 2.6 | 0.00 | 0.02 | 0.00 | 78 | 1014.9 |
| 20260507012012 | 50 | 55 | 1.7 | 2.6 | 0.00 | 0.02 | 0.00 | 78 | 1014.9 |
| 20260507011912 | 50 | 56 | 1.7 | 1.7 | 0.00 | 0.02 | 0.00 | 78 | 1014.9 |
| 20260507011812 | 50 | 52 | 1.7 | 1.7 | 0.00 | 0.02 | 0.00 | 78 | 1014.9 |
| 20260507011711 | 50 | 51 | 1.7 | 1.7 | 0.00 | 0.02 | 0.00 | 78 | 1015.0 |
| 20260507011611 | 50 | 51 | 1.7 | 1.7 | 0.00 | 0.02 | 0.00 | 78 | 1015.0 |
| 20260507011511 | 50 | 54 | 1.7 | 1.7 | 0.00 | 0.02 | 0.00 | 78 | 1015.0 |
| 20260507011411 | 50 | 57 | 1.7 | 2.6 | 0.00 | 0.02 | 0.00 | 78 | 1015.0 |
| 20260507011311 | 50 | 57 | 1.7 | 2.6 | 0.00 | 0.02 | 0.00 | 78 | 1015.0 |
| 20260507011211 | 50 | 58 | 1.7 | 1.7 | 0.00 | 0.02 | 0.00 | 78 | 1015.0 |
| 20260507011111 | 50 | 56 | 1.7 | 2.6 | 0.00 | 0.02 | 0.00 | 78 | 1015.0 |
| 20260507011011 | 50 | 58 | 1.7 | 2.6 | 0.00 | 0.02 | 0.00 | 79 | 1015.0 |
| 20260507010911 | 50 | 56 | 1.7 | 2.6 | 0.00 | 0.02 | 0.00 | 79 | 1015.0 |
| 20260507010811 | 50 | 55 | 1.7 | 2.6 | 0.00 | 0.02 | 0.00 | 80 | 1015.0 |
| 20260507010711 | 50 | 56 | 1.7 | 1.7 | 0.00 | 0.02 | 0.00 | 80 | 1015.0 |
| 20260507010611 | 50 | 58 | 1.7 | 2.6 | 0.00 | 0.02 | 0.00 | 80 | 1015.0 |
| 20260507010511 | 50 | 57 | 1.7 | 1.7 | 0.00 | 0.02 | 0.00 | 80 | 1015.0 |
| 20260507010341 | 50 | 55 | 1.7 | 1.7 | 0.00 | 0.02 | 0.00 | 81 | 1015.0 |
| 20260507010241 | 50 | 55 | 0.9 | 1.7 | 0.00 | 0.02 | 0.00 | 81 | 1015.0 |
| 20260507010141 | 50 | 54 | 0.9 | 1.7 | 0.00 | 0.02 | 0.00 | 81 | 1015.0 |
| 20260507010040 | 50 | 54 | 0.9 | 1.7 | 0.00 | 0.02 | 0.00 | 81 | 1015.0 |
| 20260507005940 | 50 | 53 | 0.9 | 2.6 | 0.00 | 0.02 | 0.00 | 81 | 1015.0 |
| 20260507005840 | 50 | 52 | 0.9 | 1.7 | 0.00 | 0.02 | 0.00 | 81 | 1015.0 |
| 20260507005740 | 50 | 52 | 0.9 | 1.7 | 0.00 | 0.02 | 0.00 | 81 | 1014.9 |
| 20260507005640 | 50 | 54 | 0.9 | 1.7 | 0.00 | 0.02 | 0.00 | 82 | 1014.9 |
| 20260507005540 | 50 | 55 | 0.9 | 0.9 | 0.00 | 0.02 | 0.00 | 82 | 1015.0 |
| 20260507005440 | 50 | 55 | 0.9 | 1.7 | 0.00 | 0.02 | 0.00 | 82 | 1015.0 |
| 20260507005340 | 50 | 55 | 0.9 | 1.7 | 0.00 | 0.02 | 0.00 | 82 | 1015.0 |
| 20260507005240 | 51 | 42 | 0.9 | 0.9 | 0.00 | 0.02 | 0.00 | 82 | 1015.0 |
| 20260507005140 | 50 | 42 | 0.9 | 1.7 | 0.00 | 0.02 | 0.00 | 82 | 1015.0 |
| 20260507005039 | 50 | 42 | 0.9 | 0.9 | 0.00 | 0.02 | 0.00 | 82 | 1015.0 |
| 20260507004939 | 50 | 42 | 0.9 | 0.9 | 0.00 | 0.02 | 0.00 | 82 | 1015.0 |
| 20260507004839 | 50 | 42 | 0.9 | 0.9 | 0.00 | 0.02 | 0.00 | 82 | 1015.0 |
| 20260507004739 | 50 | 42 | 0.9 | 0.9 | 0.00 | 0.02 | 0.00 | 82 | 1015.0 |
| 20260507004639 | 50 | 42 | 0.9 | 0.9 | 0.00 | 0.02 | 0.00 | 82 | 1015.0 |
| 20260507004539 | 50 | 42 | 0.9 | 0.9 | 0.00 | 0.02 | 0.00 | 82 | 1015.0 |
| 20260507004439 | 51 | 42 | 0.9 | 0.9 | 0.00 | 0.02 | 0.00 | 82 | 1015.0 |
| 20260507004339 | 51 | 42 | 0.9 | 0.9 | 0.00 | 0.02 | 0.00 | 82 | 1015.0 |
| 20260507004239 | 51 | 42 | 0.9 | 0.9 | 0.00 | 0.02 | 0.00 | 82 | 1015.0 |
| 20260507004139 | 51 | 42 | 0.9 | 0.9 | 0.00 | 0.02 | 0.00 | 82 | 1015.0 |
| 20260507004039 | 51 | 42 | 0.9 | 0.9 | 0.00 | 0.02 | 0.00 | 82 | 1015.0 |
| 20260507003939 | 51 | 42 | 0.9 | 0.9 | 0.00 | 0.02 | 0.00 | 82 | 1015.0 |
| 20260507003839 | 51 | 42 | 0.9 | 0.9 | 0.00 | 0.02 | 0.00 | 82 | 1015.0 |
| 20260507003739 | 51 | 42 | 0.9 | 0.9 | 0.00 | 0.02 | 0.00 | 82 | 1015.0 |
| 20260507003638 | 51 | 42 | 1.7 | 1.7 | 0.00 | 0.02 | 0.00 | 82 | 1015.0 |
| 20260507003538 | 51 | 43 | 1.7 | 1.7 | 0.00 | 0.02 | 0.00 | 82 | 1015.0 |
| 20260507003438 | 51 | 50 | 1.7 | 2.6 | 0.00 | 0.02 | 0.00 | 82 | 1015.1 |
| 20260507003338 | 51 | 44 | 1.7 | 1.7 | 0.00 | 0.02 | 0.00 | 82 | 1015.0 |
| 20260507003238 | 51 | 42 | 0.9 | 1.7 | 0.00 | 0.02 | 0.00 | 82 | 1015.1 |
| 20260507003138 | 51 | 34 | 0.9 | 1.7 | 0.00 | 0.02 | 0.00 | 81 | 1015.0 |
| 20260507003038 | 51 | 34 | 1.7 | 1.7 | 0.00 | 0.02 | 0.00 | 81 | 1015.1 |
| 20260507002938 | 51 | 38 | 1.7 | 1.7 | 0.00 | 0.02 | 0.00 | 81 | 1015.1 |
| 20260507002838 | 51 | 43 | 1.7 | 2.6 | 0.00 | 0.02 | 0.00 | 81 | 1015.1 |
| 20260507002738 | 51 | 36 | 1.7 | 2.6 | 0.00 | 0.02 | 0.00 | 81 | 1015.1 |
| 20260507002638 | 51 | 30 | 2.6 | 2.6 | 0.00 | 0.02 | 0.00 | 81 | 1015.1 |
| 20260507002538 | 51 | 24 | 2.6 | 2.6 | 0.00 | 0.02 | 0.00 | 81 | 1015.1 |
| 20260507002438 | 51 | 29 | 2.6 | 2.6 | 0.00 | 0.02 | 0.00 | 81 | 1015.1 |
| 20260507002338 | 51 | 30 | 1.7 | 2.6 | 0.00 | 0.02 | 0.00 | 81 | 1015.1 |
| 20260507002237 | 51 | 29 | 0.9 | 1.7 | 0.00 | 0.02 | 0.00 | 81 | 1015.1 |
| 20260507002137 | 51 | 28 | 0.9 | 1.7 | 0.00 | 0.02 | 0.00 | 81 | 1015.1 |
| 20260507002037 | 51 | 45 | 0.9 | 0.9 | 0.00 | 0.02 | 0.00 | 81 | 1015.1 |
| 20260507001937 | 51 | 10 | 0.9 | 1.7 | 0.00 | 0.02 | 0.00 | 81 | 1015.1 |
| 20260507001837 | 51 | 11 | 0.9 | 1.7 | 0.00 | 0.02 | 0.00 | 81 | 1015.1 |
| 20260507001737 | 51 | 30 | 1.7 | 1.7 | 0.00 | 0.02 | 0.00 | 81 | 1015.2 |
| 20260507001637 | 51 | 29 | 1.7 | 2.6 | 0.00 | 0.02 | 0.00 | 81 | 1015.1 |
| 20260507001537 | 51 | 33 | 1.7 | 2.6 | 0.00 | 0.02 | 0.00 | 81 | 1015.1 |
| 20260507001437 | 51 | 34 | 1.7 | 2.6 | 0.00 | 0.02 | 0.00 | 81 | 1015.1 |
| 20260507001337 | 51 | 34 | 1.7 | 2.6 | 0.00 | 0.02 | 0.00 | 81 | 1015.1 |
| 20260507001237 | 51 | 26 | 1.7 | 2.6 | 0.00 | 0.02 | 0.00 | 81 | 1015.1 |
| 20260507001137 | 51 | 25 | 0.9 | 1.7 | 0.00 | 0.02 | 0.00 | 81 | 1015.1 |
| 20260507001037 | 51 | 11 | 0.9 | 1.7 | 0.00 | 0.02 | 0.00 | 81 | 1015.1 |
| 20260507000937 | 51 | 25 | 0.9 | 1.7 | 0.00 | 0.02 | 0.00 | 81 | 1015.1 |
| 20260507000837 | 51 | 35 | 1.7 | 1.7 | 0.00 | 0.02 | 0.00 | 81 | 1015.1 |
| 20260507000737 | 51 | 25 | 0.9 | 1.7 | 0.00 | 0.02 | 0.00 | 81 | 1015.1 |
| 20260507000637 | 51 | 22 | 1.7 | 2.6 | 0.00 | 0.02 | 0.00 | 81 | 1015.1 |
| 20260507000536 | 51 | 6 | 0.9 | 1.7 | 0.00 | 0.02 | 0.00 | 81 | 1015.1 |
| 20260507000436 | 51 | 32 | 1.7 | 1.7 | 0.00 | 0.02 | 0.00 | 81 | 1015.1 |
| 20260507000336 | 51 | 23 | 1.7 | 1.7 | 0.00 | 0.02 | 0.00 | 81 | 1015.1 |
| 20260507000236 | 51 | 22 | 1.7 | 2.6 | 0.00 | 0.02 | 0.00 | 81 | 1015.2 |
| 20260507000136 | 51 | 0 | 1.7 | 2.6 | 0.00 | 0.02 | 0.00 | 81 | 1015.1 |
| 20260507000036 | 51 | 20 | 2.6 | 2.6 | 0.00 | 0.02 | 0.00 | 81 | 1015.1 |
| 20260506235936 | 51 | 351 | 1.7 | 2.6 | 0.00 | 0.02 | 0.00 | 81 | 1015.1 |
| 20260506235836 | 51 | 350 | 1.7 | 2.6 | 0.00 | 0.02 | 0.00 | 81 | 1015.1 |
| 20260506235706 | 51 | 346 | 2.6 | 2.6 | 0.00 | 0.02 | 0.00 | 81 | 1015.1 |
| 20260506235606 | 51 | 348 | 2.6 | 2.6 | 0.00 | 0.02 | 0.00 | 81 | 1015.1 |
| 20260506235506 | 51 | 344 | 2.6 | 2.6 | 0.00 | 0.02 | 0.00 | 81 | 1015.1 |
| 20260506235406 | 51 | 345 | 2.6 | 2.6 | 0.00 | 0.02 | 0.00 | 81 | 1015.1 |
| 20260506235307 | 51 | 353 | 2.6 | 2.6 | 0.00 | 0.02 | 0.00 | 81 | 1015.1 |
| 20260506235205 | 51 | 345 | 2.6 | 2.6 | 0.00 | 0.02 | 0.00 | 81 | 1015.1 |
| 20260506235105 | 51 | 337 | 2.6 | 2.6 | 0.00 | 0.02 | 0.00 | 81 | 1015.1 |
| 20260506235005 | 51 | 355 | 2.6 | 2.6 | 0.00 | 0.02 | 0.00 | 81 | 1015.1 |
| 20260506234905 | 51 | 342 | 2.6 | 2.6 | 0.00 | 0.02 | 0.00 | 80 | 1015.1 |
| 20260506234805 | 51 | 340 | 2.6 | 2.6 | 0.00 | 0.02 | 0.00 | 80 | 1015.0 |
| 20260506234705 | 51 | 340 | 2.6 | 2.6 | 0.00 | 0.02 | 0.00 | 80 | 1015.0 |
| 20260506234605 | 51 | 342 | 2.6 | 2.6 | 0.00 | 0.02 | 0.00 | 80 | 1015.0 |
| 20260506234505 | 51 | 344 | 4.3 | 4.3 | 0.00 | 0.02 | 0.00 | 80 | 1015.0 |
| 20260506234405 | 51 | 342 | 2.6 | 4.3 | 0.00 | 0.02 | 0.00 | 80 | 1015.0 |
| 20260506234305 | 51 | 342 | 2.6 | 4.3 | 0.00 | 0.02 | 0.00 | 80 | 1015.0 |
| 20260506234205 | 51 | 347 | 4.3 | 2.6 | 0.00 | 0.02 | 0.00 | 80 | 1015.1 |
| 20260506234105 | 51 | 351 | 2.6 | 4.3 | 0.00 | 0.02 | 0.00 | 80 | 1015.0 |
| 20260506234005 | 51 | 345 | 2.6 | 2.6 | 0.00 | 0.02 | 0.00 | 80 | 1015.0 |
| 20260506233905 | 51 | 346 | 2.6 | 2.6 | 0.00 | 0.02 | 0.00 | 80 | 1015.0 |
| 20260506233804 | 51 | 341 | 2.6 | 2.6 | 0.00 | 0.02 | 0.00 | 80 | 1015.0 |
| 20260506233704 | 51 | 339 | 2.6 | 2.6 | 0.00 | 0.02 | 0.00 | 80 | 1015.0 |
| 20260506233604 | 51 | 336 | 2.6 | 2.6 | 0.00 | 0.02 | 0.00 | 80 | 1015.0 |
| 20260506233504 | 51 | 327 | 2.6 | 2.6 | 0.00 | 0.02 | 0.00 | 80 | 1015.0 |
| 20260506233404 | 51 | 326 | 2.6 | 2.6 | 0.00 | 0.02 | 0.00 | 80 | 1015.0 |
| 20260506233304 | 51 | 325 | 2.6 | 2.6 | 0.00 | 0.02 | 0.00 | 80 | 1015.0 |
| 20260506233204 | 51 | 328 | 4.3 | 2.6 | 0.00 | 0.02 | 0.00 | 80 | 1015.0 |
| 20260506233104 | 51 | 331 | 2.6 | 4.3 | 0.00 | 0.02 | 0.00 | 80 | 1015.0 |
| 20260506233004 | 51 | 332 | 2.6 | 4.3 | 0.00 | 0.02 | 0.00 | 80 | 1015.0 |
| 20260506232834 | 51 | 330 | 2.6 | 4.3 | 0.00 | 0.02 | 0.00 | 80 | 1015.0 |
| 20260506232704 | 51 | 335 | 2.6 | 2.6 | 0.00 | 0.02 | 0.00 | 80 | 1015.0 |
| 20260506232604 | 51 | 335 | 2.6 | 2.6 | 0.00 | 0.02 | 0.00 | 80 | 1015.0 |
| 20260506232434 | 51 | 333 | 2.6 | 2.6 | 0.00 | 0.02 | 0.00 | 80 | 1015.0 |
| 20260506232334 | 51 | 334 | 2.6 | 2.6 | 0.00 | 0.02 | 0.00 | 80 | 1015.0 |
| 20260506232234 | 51 | 333 | 2.6 | 2.6 | 0.00 | 0.02 | 0.00 | 80 | 1015.0 |
| 20260506232134 | 51 | 336 | 2.6 | 2.6 | 0.00 | 0.02 | 0.00 | 80 | 1015.0 |
| 20260506232034 | 51 | 328 | 4.3 | 4.3 | 0.00 | 0.02 | 0.00 | 80 | 1015.0 |
| 20260506231904 | 51 | 332 | 2.6 | 4.3 | 0.00 | 0.02 | 0.00 | 80 | 1015.0 |
| 20260506231734 | 51 | 328 | 4.3 | 4.3 | 0.00 | 0.02 | 0.00 | 80 | 1015.0 |
| 20260506231634 | 51 | 330 | 4.3 | 4.3 | 0.00 | 0.02 | 0.00 | 80 | 1015.0 |
| 20260506231534 | 51 | 328 | 2.6 | 4.3 | 0.00 | 0.02 | 0.00 | 80 | 1015.0 |
| 20260506231404 | 51 | 334 | 4.3 | 4.3 | 0.00 | 0.02 | 0.00 | 80 | 1015.1 |
| 20260506231304 | 51 | 333 | 4.3 | 4.3 | 0.00 | 0.02 | 0.00 | 80 | 1015.0 |
| 20260506231204 | 51 | 329 | 4.3 | 4.3 | 0.00 | 0.02 | 0.00 | 80 | 1015.0 |
| 20260506231104 | 51 | 325 | 4.3 | 4.3 | 0.00 | 0.02 | 0.00 | 80 | 1015.0 |
| 20260506231004 | 51 | 328 | 4.3 | 4.3 | 0.00 | 0.02 | 0.00 | 80 | 1015.1 |
| 20260506230834 | 51 | 327 | 4.3 | 5.2 | 0.00 | 0.02 | 0.00 | 80 | 1015.1 |
| 20260506230704 | 51 | 332 | 4.3 | 5.2 | 0.00 | 0.02 | 0.00 | 80 | 1015.1 |
| 20260506230534 | 51 | 333 | 4.3 | 4.3 | 0.00 | 0.02 | 0.00 | 80 | 1015.1 |
| 20260506230434 | 51 | 333 | 4.3 | 5.2 | 0.00 | 0.02 | 0.00 | 80 | 1015.1 |
| 20260506230334 | 51 | 330 | 4.3 | 5.2 | 0.00 | 0.02 | 0.00 | 80 | 1015.1 |
| 20260506230234 | 51 | 330 | 4.3 | 4.3 | 0.00 | 0.02 | 0.00 | 80 | 1015.0 |
| 20260506230134 | 51 | 327 | 4.3 | 4.3 | 0.00 | 0.02 | 0.00 | 80 | 1015.0 |
| 20260506230034 | 51 | 328 | 4.3 | 5.2 | 0.00 | 0.02 | 0.00 | 79 | 1015.1 |
| 20260506225934 | 51 | 327 | 2.6 | 4.3 | 0.00 | 0.02 | 0.02 | 79 | 1015.1 |
| 20260506225834 | 51 | 329 | 2.6 | 4.3 | 0.00 | 0.02 | 0.02 | 79 | 1015.1 |
| 20260506225704 | 51 | 324 | 2.6 | 4.3 | 0.00 | 0.02 | 0.02 | 79 | 1015.1 |
| 20260506225604 | 51 | 325 | 4.3 | 4.3 | 0.00 | 0.02 | 0.02 | 79 | 1015.1 |
| 20260506225504 | 51 | 318 | 4.3 | 4.3 | 0.00 | 0.02 | 0.02 | 79 | 1015.1 |
| 20260506225334 | 51 | 318 | 4.3 | 4.3 | 0.00 | 0.02 | 0.02 | 79 | 1015.1 |
| 20260506225234 | 51 | 313 | 4.3 | 4.3 | 0.00 | 0.02 | 0.02 | 79 | 1015.0 |
| 20260506225104 | 51 | 313 | 4.3 | 4.3 | 0.00 | 0.02 | 0.02 | 79 | 1015.1 |
| 20260506224934 | 51 | 314 | 2.6 | 5.2 | 0.00 | 0.02 | 0.02 | 79 | 1015.1 |
| 20260506224834 | 51 | 320 | 2.6 | 4.3 | 0.00 | 0.02 | 0.02 | 79 | 1015.1 |
| 20260506224734 | 51 | 319 | 2.6 | 2.6 | 0.00 | 0.02 | 0.02 | 79 | 1015.1 |
| 20260506224634 | 51 | 320 | 4.3 | 4.3 | 0.00 | 0.02 | 0.02 | 79 | 1015.0 |
| 20260506224504 | 51 | 321 | 4.3 | 4.3 | 0.00 | 0.02 | 0.02 | 79 | 1015.1 |
| 20260506224404 | 51 | 327 | 4.3 | 4.3 | 0.00 | 0.02 | 0.02 | 79 | 1015.0 |
| 20260506224304 | 51 | 324 | 4.3 | 4.3 | 0.00 | 0.02 | 0.02 | 79 | 1015.0 |
| 20260506224134 | 51 | 324 | 4.3 | 4.3 | 0.00 | 0.02 | 0.02 | 79 | 1015.1 |
| 20260506224004 | 51 | 327 | 4.3 | 4.3 | 0.00 | 0.02 | 0.02 | 79 | 1015.0 |
| 20260506223904 | 51 | 320 | 4.3 | 4.3 | 0.00 | 0.02 | 0.02 | 79 | 1015.1 |
| 20260506223734 | 51 | 333 | 4.3 | 4.3 | 0.00 | 0.02 | 0.02 | 78 | 1015.0 |
| 20260506223634 | 51 | 332 | 4.3 | 4.3 | 0.00 | 0.02 | 0.02 | 78 | 1015.0 |
| 20260506223504 | 51 | 325 | 4.3 | 4.3 | 0.00 | 0.02 | 0.02 | 78 | 1015.0 |
| 20260506223334 | 51 | 322 | 4.3 | 5.2 | 0.00 | 0.02 | 0.02 | 78 | 1015.0 |
| 20260506223204 | 51 | 315 | 4.3 | 5.2 | 0.00 | 0.02 | 0.02 | 78 | 1015.0 |
| 20260506223104 | 51 | 316 | 4.3 | 5.2 | 0.00 | 0.02 | 0.02 | 78 | 1015.0 |
| 20260506222934 | 51 | 318 | 4.3 | 4.3 | 0.00 | 0.02 | 0.02 | 78 | 1015.0 |
| 20260506222834 | 51 | 318 | 4.3 | 4.3 | 0.00 | 0.02 | 0.02 | 78 | 1015.0 |
| 20260506222733 | 51 | 316 | 4.3 | 4.3 | 0.00 | 0.02 | 0.02 | 78 | 1015.0 |
| 20260506222604 | 51 | 318 | 4.3 | 5.2 | 0.00 | 0.02 | 0.02 | 78 | 1015.0 |
| 20260506222504 | 51 | 322 | 4.3 | 4.3 | 0.00 | 0.02 | 0.02 | 78 | 1015.0 |
| 20260506222403 | 51 | 312 | 4.3 | 4.3 | 0.00 | 0.02 | 0.02 | 78 | 1015.0 |
| 20260506222233 | 51 | 327 | 4.3 | 4.3 | 0.00 | 0.02 | 0.02 | 78 | 1015.0 |
| 20260506222133 | 51 | 324 | 2.6 | 4.3 | 0.00 | 0.02 | 0.02 | 78 | 1015.0 |
| 20260506222033 | 51 | 323 | 2.6 | 2.6 | 0.00 | 0.02 | 0.02 | 78 | 1015.0 |
| 20260506221933 | 51 | 318 | 2.6 | 2.6 | 0.00 | 0.02 | 0.02 | 78 | 1015.0 |
| 20260506221803 | 51 | 313 | 4.3 | 4.3 | 0.00 | 0.02 | 0.02 | 78 | 1015.0 |
| 20260506221703 | 51 | 311 | 2.6 | 2.6 | 0.00 | 0.02 | 0.02 | 78 | 1015.0 |
| 20260506221603 | 51 | 311 | 2.6 | 4.3 | 0.00 | 0.02 | 0.02 | 78 | 1015.0 |
| 20260506221504 | 51 | 313 | 4.3 | 4.3 | 0.00 | 0.02 | 0.02 | 78 | 1015.0 |
| 20260506221333 | 51 | 321 | 2.6 | 4.3 | 0.00 | 0.02 | 0.02 | 78 | 1015.0 |
| 20260506221233 | 51 | 322 | 2.6 | 4.3 | 0.00 | 0.02 | 0.02 | 78 | 1015.0 |
| 20260506221133 | 51 | 314 | 4.3 | 4.3 | 0.00 | 0.02 | 0.02 | 78 | 1015.0 |
| 20260506221033 | 51 | 314 | 4.3 | 4.3 | 0.00 | 0.02 | 0.02 | 78 | 1015.0 |
| 20260506220933 | 51 | 315 | 4.3 | 4.3 | 0.00 | 0.02 | 0.02 | 78 | 1014.9 |
| 20260506220833 | 51 | 314 | 4.3 | 4.3 | 0.00 | 0.02 | 0.02 | 78 | 1014.9 |
| 20260506220733 | 51 | 313 | 4.3 | 5.2 | 0.00 | 0.02 | 0.02 | 78 | 1014.9 |
| 20260506220633 | 51 | 319 | 4.3 | 4.3 | 0.00 | 0.02 | 0.02 | 78 | 1014.9 |
| 20260506220533 | 51 | 317 | 4.3 | 4.3 | 0.00 | 0.02 | 0.02 | 78 | 1014.9 |
| 20260506220403 | 51 | 320 | 4.3 | 4.3 | 0.00 | 0.02 | 0.02 | 78 | 1014.9 |
| 20260506220303 | 51 | 321 | 4.3 | 5.2 | 0.00 | 0.02 | 0.02 | 78 | 1014.9 |
| 20260506220203 | 51 | 319 | 4.3 | 4.3 | 0.00 | 0.02 | 0.02 | 79 | 1014.9 |
| 20260506220103 | 51 | 323 | 4.3 | 5.2 | 0.00 | 0.02 | 0.02 | 79 | 1014.9 |
| 20260506215933 | 51 | 324 | 4.3 | 4.3 | 0.00 | 0.02 | 0.02 | 79 | 1014.9 |
| 20260506215833 | 51 | 326 | 4.3 | 4.3 | 0.00 | 0.02 | 0.02 | 79 | 1014.9 |
| 20260506215703 | 51 | 321 | 4.3 | 4.3 | 0.00 | 0.02 | 0.02 | 79 | 1014.9 |
| 20260506215603 | 51 | 324 | 2.6 | 4.3 | 0.00 | 0.02 | 0.02 | 79 | 1014.9 |
| 20260506215433 | 51 | 330 | 5.2 | 5.2 | 0.00 | 0.02 | 0.02 | 79 | 1014.9 |
| 20260506215306 | 51 | 315 | 4.3 | 5.2 | 0.00 | 0.02 | 0.02 | 79 | 1014.9 |
| 20260506215133 | 51 | 318 | 4.3 | 5.2 | 0.00 | 0.02 | 0.02 | 79 | 1014.9 |
| 20260506215033 | 51 | 314 | 4.3 | 5.2 | 0.00 | 0.02 | 0.02 | 79 | 1014.9 |
| 20260506214903 | 51 | 310 | 5.2 | 5.2 | 0.00 | 0.02 | 0.02 | 79 | 1014.9 |
| 20260506214803 | 51 | 314 | 4.3 | 5.2 | 0.00 | 0.02 | 0.02 | 79 | 1014.9 |
| 20260506214633 | 51 | 311 | 5.2 | 5.2 | 0.00 | 0.02 | 0.02 | 79 | 1014.9 |
| 20260506214533 | 51 | 314 | 4.3 | 5.2 | 0.00 | 0.02 | 0.02 | 79 | 1014.9 |
| 20260506214403 | 51 | 316 | 4.3 | 5.2 | 0.00 | 0.02 | 0.02 | 79 | 1014.9 |
| 20260506214303 | 51 | 320 | 4.3 | 4.3 | 0.00 | 0.02 | 0.02 | 79 | 1014.9 |
| 20260506214133 | 51 | 325 | 4.3 | 5.2 | 0.00 | 0.02 | 0.02 | 79 | 1014.9 |
| 20260506214033 | 51 | 330 | 4.3 | 5.2 | 0.00 | 0.02 | 0.02 | 79 | 1014.9 |
| 20260506213933 | 51 | 322 | 4.3 | 5.2 | 0.00 | 0.02 | 0.02 | 79 | 1014.9 |
| 20260506213833 | 51 | 320 | 4.3 | 4.3 | 0.00 | 0.02 | 0.02 | 79 | 1014.9 |
| 20260506213703 | 51 | 319 | 4.3 | 5.2 | 0.00 | 0.02 | 0.02 | 79 | 1014.9 |
| 20260506213603 | 51 | 320 | 4.3 | 5.2 | 0.00 | 0.02 | 0.02 | 78 | 1014.9 |
| 20260506213503 | 51 | 319 | 4.3 | 4.3 | 0.00 | 0.02 | 0.02 | 78 | 1014.9 |
| 20260506213403 | 51 | 322 | 4.3 | 5.2 | 0.00 | 0.02 | 0.02 | 79 | 1014.9 |
| 20260506213233 | 51 | 324 | 4.3 | 5.2 | 0.00 | 0.02 | 0.02 | 79 | 1014.9 |
| 20260506213103 | 51 | 324 | 4.3 | 5.2 | 0.00 | 0.02 | 0.02 | 79 | 1014.9 |
| 20260506212933 | 51 | 315 | 4.3 | 5.2 | 0.00 | 0.02 | 0.02 | 79 | 1014.9 |
| 20260506212803 | 51 | 315 | 4.3 | 5.2 | 0.00 | 0.02 | 0.02 | 79 | 1014.9 |
| 20260506212703 | 51 | 312 | 4.3 | 5.2 | 0.00 | 0.02 | 0.02 | 79 | 1014.9 |
| 20260506212603 | 51 | 319 | 4.3 | 4.3 | 0.00 | 0.02 | 0.02 | 79 | 1015.0 |
| 20260506212433 | 51 | 312 | 4.3 | 5.2 | 0.00 | 0.02 | 0.02 | 79 | 1014.9 |
| 20260506212333 | 51 | 319 | 4.3 | 5.2 | 0.00 | 0.02 | 0.02 | 79 | 1014.9 |
| 20260506212233 | 51 | 321 | 4.3 | 5.2 | 0.00 | 0.02 | 0.02 | 79 | 1014.9 |
| 20260506212103 | 51 | 317 | 4.3 | 5.2 | 0.00 | 0.02 | 0.02 | 79 | 1014.9 |
| 20260506212003 | 51 | 318 | 5.2 | 5.2 | 0.00 | 0.02 | 0.02 | 78 | 1014.9 |
| 20260506211833 | 51 | 310 | 5.2 | 5.2 | 0.00 | 0.02 | 0.02 | 78 | 1014.9 |
| 20260506211733 | 51 | 313 | 5.2 | 5.2 | 0.00 | 0.02 | 0.02 | 78 | 1014.9 |
| 20260506211603 | 51 | 312 | 5.2 | 5.2 | 0.00 | 0.02 | 0.02 | 78 | 1014.9 |
| 20260506211503 | 51 | 313 | 5.2 | 5.2 | 0.00 | 0.02 | 0.02 | 78 | 1014.9 |
| 20260506211333 | 51 | 318 | 4.3 | 6.1 | 0.00 | 0.02 | 0.02 | 79 | 1015.0 |
| 20260506211233 | 51 | 324 | 4.3 | 5.2 | 0.00 | 0.02 | 0.02 | 79 | 1014.9 |
| 20260506211103 | 51 | 318 | 4.3 | 4.3 | 0.00 | 0.02 | 0.02 | 79 | 1014.9 |
| 20260506211003 | 51 | 318 | 4.3 | 5.2 | 0.00 | 0.02 | 0.02 | 79 | 1014.9 |
| 20260506210903 | 51 | 319 | 4.3 | 5.2 | 0.00 | 0.02 | 0.02 | 79 | 1014.9 |
| 20260506210803 | 51 | 317 | 4.3 | 5.2 | 0.00 | 0.02 | 0.02 | 79 | 1014.9 |
| 20260506210703 | 51 | 314 | 4.3 | 5.2 | 0.00 | 0.02 | 0.02 | 79 | 1015.0 |
| 20260506210603 | 51 | 312 | 4.3 | 5.2 | 0.00 | 0.02 | 0.02 | 79 | 1014.9 |
| 20260506210503 | 51 | 309 | 5.2 | 6.1 | 0.00 | 0.02 | 0.02 | 79 | 1014.9 |
| 20260506210403 | 51 | 309 | 4.3 | 6.1 | 0.00 | 0.02 | 0.02 | 79 | 1015.0 |
| 20260506210303 | 51 | 309 | 5.2 | 6.1 | 0.00 | 0.02 | 0.02 | 79 | 1014.9 |
| 20260506210203 | 51 | 318 | 5.2 | 5.2 | 0.00 | 0.02 | 0.02 | 79 | 1014.9 |
| 20260506210103 | 51 | 319 | 5.2 | 6.1 | 0.00 | 0.02 | 0.02 | 79 | 1014.9 |
| 20260506205933 | 51 | 316 | 5.2 | 6.1 | 0.00 | 0.02 | 0.02 | 79 | 1014.9 |
| 20260506205803 | 51 | 313 | 5.2 | 6.1 | 0.00 | 0.02 | 0.02 | 79 | 1014.9 |
| 20260506205633 | 51 | 313 | 4.3 | 4.3 | 0.00 | 0.02 | 0.02 | 79 | 1014.9 |
| 20260506205503 | 51 | 322 | 5.2 | 6.1 | 0.00 | 0.02 | 0.02 | 79 | 1014.9 |
| 20260506205403 | 51 | 318 | 4.3 | 6.1 | 0.00 | 0.02 | 0.02 | 79 | 1014.9 |
| 20260506205305 | 51 | 330 | 4.3 | 5.2 | 0.00 | 0.02 | 0.02 | 79 | 1014.9 |
| 20260506205134 | 51 | 312 | 4.3 | 5.2 | 0.00 | 0.02 | 0.02 | 78 | 1014.9 |
| 20260506205033 | 51 | 311 | 4.3 | 5.2 | 0.00 | 0.02 | 0.02 | 78 | 1014.9 |
| 20260506204933 | 51 | 313 | 5.2 | 6.1 | 0.00 | 0.02 | 0.02 | 78 | 1014.9 |
| 20260506204803 | 51 | 307 | 4.3 | 5.2 | 0.00 | 0.02 | 0.02 | 79 | 1014.9 |
| 20260506204633 | 51 | 317 | 5.2 | 5.2 | 0.00 | 0.02 | 0.02 | 79 | 1014.9 |
| 20260506204533 | 51 | 312 | 5.2 | 6.1 | 0.00 | 0.02 | 0.02 | 78 | 1014.8 |
| 20260506204433 | 51 | 314 | 4.3 | 6.1 | 0.00 | 0.02 | 0.02 | 78 | 1014.8 |
| 20260506204303 | 51 | 315 | 4.3 | 5.2 | 0.00 | 0.02 | 0.02 | 78 | 1014.8 |
| 20260506204203 | 51 | 318 | 4.3 | 4.3 | 0.00 | 0.02 | 0.02 | 78 | 1014.8 |
| 20260506204033 | 51 | 314 | 5.2 | 5.2 | 0.00 | 0.02 | 0.02 | 78 | 1014.8 |
| 20260506203903 | 51 | 316 | 5.2 | 6.1 | 0.00 | 0.02 | 0.02 | 78 | 1014.8 |
| 20260506203803 | 51 | 313 | 4.3 | 6.1 | 0.00 | 0.02 | 0.02 | 78 | 1014.8 |
| 20260506203703 | 51 | 307 | 4.3 | 4.3 | 0.00 | 0.02 | 0.02 | 77 | 1014.8 |
| 20260506203534 | 51 | 309 | 4.3 | 5.2 | 0.00 | 0.02 | 0.02 | 77 | 1014.8 |
| 20260506203433 | 51 | 308 | 4.3 | 6.1 | 0.00 | 0.02 | 0.02 | 77 | 1014.8 |
| 20260506203333 | 51 | 307 | 4.3 | 6.1 | 0.00 | 0.02 | 0.02 | 77 | 1014.7 |
| 20260506203233 | 51 | 305 | 4.3 | 6.1 | 0.00 | 0.02 | 0.02 | 77 | 1014.7 |
| 20260506203133 | 51 | 314 | 2.6 | 4.3 | 0.00 | 0.02 | 0.02 | 77 | 1014.7 |
| 20260506203033 | 51 | 313 | 4.3 | 5.2 | 0.00 | 0.02 | 0.02 | 78 | 1014.8 |
| 20260506202933 | 51 | 314 | 5.2 | 5.2 | 0.00 | 0.02 | 0.02 | 78 | 1014.7 |
| 20260506202833 | 51 | 315 | 5.2 | 6.1 | 0.00 | 0.02 | 0.02 | 77 | 1014.7 |
| 20260506202703 | 51 | 314 | 4.3 | 5.2 | 0.00 | 0.02 | 0.02 | 77 | 1014.7 |
| 20260506202603 | 51 | 314 | 5.2 | 6.1 | 0.00 | 0.02 | 0.02 | 77 | 1014.7 |
| 20260506202433 | 51 | 308 | 4.3 | 5.2 | 0.00 | 0.02 | 0.02 | 77 | 1014.7 |
| 20260506202306 | 51 | 304 | 4.3 | 6.1 | 0.00 | 0.02 | 0.02 | 77 | 1014.7 |
| 20260506202133 | 51 | 313 | 5.2 | 6.1 | 0.00 | 0.02 | 0.02 | 77 | 1014.7 |
| 20260506202033 | 51 | 308 | 4.3 | 6.1 | 0.00 | 0.02 | 0.02 | 77 | 1014.7 |
| 20260506201933 | 51 | 307 | 5.2 | 5.2 | 0.00 | 0.02 | 0.02 | 77 | 1014.6 |
| 20260506201833 | 51 | 305 | 4.3 | 6.1 | 0.00 | 0.02 | 0.02 | 77 | 1014.7 |
| 20260506201733 | 51 | 304 | 4.3 | 5.2 | 0.00 | 0.02 | 0.02 | 77 | 1014.7 |
| 20260506201633 | 51 | 307 | 4.3 | 5.2 | 0.00 | 0.02 | 0.02 | 77 | 1014.7 |
| 20260506201503 | 51 | 310 | 4.3 | 4.3 | 0.00 | 0.02 | 0.02 | 77 | 1014.7 |
| 20260506201403 | 51 | 314 | 4.3 | 5.2 | 0.00 | 0.02 | 0.02 | 77 | 1014.7 |
| 20260506201303 | 51 | 317 | 4.3 | 5.2 | 0.00 | 0.02 | 0.02 | 77 | 1014.7 |
| 20260506201203 | 51 | 311 | 2.6 | 5.2 | 0.00 | 0.02 | 0.02 | 77 | 1014.6 |
| 20260506201033 | 51 | 312 | 4.3 | 4.3 | 0.00 | 0.02 | 0.02 | 76 | 1014.6 |
| 20260506200933 | 51 | 318 | 4.3 | 4.3 | 0.00 | 0.02 | 0.02 | 76 | 1014.6 |
| 20260506200833 | 51 | 313 | 4.3 | 5.2 | 0.00 | 0.02 | 0.02 | 76 | 1014.5 |
| 20260506200703 | 51 | 317 | 4.3 | 5.2 | 0.00 | 0.02 | 0.02 | 76 | 1014.6 |
| 20260506200603 | 51 | 310 | 4.3 | 5.2 | 0.00 | 0.02 | 0.02 | 76 | 1014.6 |
| 20260506200503 | 51 | 308 | 4.3 | 5.2 | 0.00 | 0.02 | 0.02 | 76 | 1014.6 |
| 20260506200403 | 51 | 304 | 4.3 | 5.2 | 0.00 | 0.02 | 0.02 | 76 | 1014.6 |
| 20260506200303 | 51 | 311 | 4.3 | 5.2 | 0.00 | 0.02 | 0.02 | 76 | 1014.6 |
| 20260506200133 | 51 | 307 | 4.3 | 5.2 | 0.00 | 0.02 | 0.02 | 76 | 1014.5 |
| 20260506200033 | 51 | 312 | 4.3 | 4.3 | 0.00 | 0.02 | 0.02 | 75 | 1014.5 |
| 20260506195903 | 51 | 311 | 2.6 | 4.3 | 0.00 | 0.02 | 0.02 | 75 | 1014.5 |
| 20260506195733 | 51 | 304 | 2.6 | 4.3 | 0.00 | 0.02 | 0.02 | 76 | 1014.5 |
| 20260506195633 | 51 | 302 | 2.6 | 2.6 | 0.00 | 0.02 | 0.02 | 76 | 1014.5 |
| 20260506195533 | 51 | 299 | 2.6 | 4.3 | 0.00 | 0.02 | 0.02 | 75 | 1014.5 |
| 20260506195403 | 51 | 300 | 2.6 | 4.3 | 0.00 | 0.02 | 0.02 | 75 | 1014.5 |
| 20260506195233 | 51 | 299 | 1.7 | 5.2 | 0.00 | 0.02 | 0.02 | 76 | 1014.4 |
| 20260506195133 | 51 | 302 | 2.6 | 2.6 | 0.00 | 0.02 | 0.02 | 76 | 1014.4 |
| 20260506195033 | 51 | 308 | 4.3 | 2.6 | 0.00 | 0.02 | 0.02 | 76 | 1014.4 |
| 20260506194903 | 51 | 314 | 4.3 | 5.2 | 0.00 | 0.02 | 0.02 | 76 | 1014.4 |
| 20260506194803 | 51 | 305 | 4.3 | 5.2 | 0.00 | 0.02 | 0.02 | 76 | 1014.4 |
| 20260506194633 | 51 | 313 | 4.3 | 5.2 | 0.00 | 0.02 | 0.02 | 76 | 1014.5 |
| 20260506194533 | 51 | 311 | 2.6 | 5.2 | 0.00 | 0.02 | 0.02 | 76 | 1014.4 |
| 20260506194403 | 51 | 300 | 4.3 | 2.6 | 0.00 | 0.02 | 0.02 | 75 | 1014.4 |
| 20260506194303 | 51 | 304 | 4.3 | 5.2 | 0.00 | 0.02 | 0.02 | 75 | 1014.4 |
| 20260506194203 | 51 | 304 | 4.3 | 4.3 | 0.00 | 0.02 | 0.02 | 75 | 1014.5 |
| 20260506194103 | 51 | 293 | 2.6 | 5.2 | 0.00 | 0.02 | 0.02 | 75 | 1014.5 |
| 20260506193933 | 51 | 294 | 2.6 | 2.6 | 0.00 | 0.02 | 0.02 | 75 | 1014.4 |
| 20260506193833 | 51 | 298 | 4.3 | 5.2 | 0.00 | 0.02 | 0.02 | 74 | 1014.4 |
| 20260506193703 | 51 | 301 | 4.3 | 4.3 | 0.00 | 0.02 | 0.02 | 75 | 1014.4 |
| 20260506193533 | 51 | 281 | 2.6 | 6.1 | 0.00 | 0.02 | 0.02 | 75 | 1014.4 |
| 20260506193433 | 51 | 302 | 1.7 | 2.6 | 0.00 | 0.02 | 0.02 | 75 | 1014.4 |
| 20260506193333 | 51 | 288 | 2.6 | 4.3 | 0.00 | 0.02 | 0.02 | 75 | 1014.4 |
| 20260506193203 | 51 | 310 | 2.6 | 4.3 | 0.00 | 0.02 | 0.02 | 75 | 1014.4 |
| 20260506193033 | 51 | 305 | 2.6 | 5.2 | 0.00 | 0.02 | 0.02 | 74 | 1014.4 |
| 20260506192903 | 51 | 302 | 2.6 | 4.3 | 0.00 | 0.02 | 0.02 | 74 | 1014.4 |
| 20260506192733 | 51 | 287 | 2.6 | 2.6 | 0.00 | 0.02 | 0.02 | 74 | 1014.4 |
| 20260506192633 | 51 | 296 | 2.6 | 2.6 | 0.00 | 0.02 | 0.02 | 74 | 1014.4 |
| 20260506192533 | 51 | 300 | 2.6 | 5.2 | 0.00 | 0.02 | 0.02 | 74 | 1014.4 |
| 20260506192403 | 51 | 307 | 2.6 | 4.3 | 0.00 | 0.02 | 0.02 | 74 | 1014.3 |
| 20260506192305 | 51 | 295 | 2.6 | 4.3 | 0.00 | 0.02 | 0.02 | 74 | 1014.4 |
| 20260506192203 | 51 | 291 | 2.6 | 4.3 | 0.00 | 0.02 | 0.02 | 74 | 1014.3 |
| 20260506192103 | 51 | 305 | 2.6 | 4.3 | 0.00 | 0.02 | 0.02 | 74 | 1014.3 |
| 20260506192003 | 51 | 296 | 2.6 | 4.3 | 0.00 | 0.02 | 0.02 | 74 | 1014.3 |
| 20260506191903 | 51 | 294 | 2.6 | 4.3 | 0.00 | 0.02 | 0.02 | 74 | 1014.3 |
| 20260506191803 | 51 | 299 | 2.6 | 4.3 | 0.00 | 0.02 | 0.02 | 74 | 1014.3 |
| 20260506191633 | 51 | 298 | 4.3 | 4.3 | 0.00 | 0.02 | 0.02 | 74 | 1014.4 |
| 20260506191533 | 51 | 301 | 4.3 | 6.1 | 0.00 | 0.02 | 0.02 | 74 | 1014.4 |
| 20260506191403 | 51 | 297 | 2.6 | 5.2 | 0.00 | 0.02 | 0.02 | 74 | 1014.3 |
| 20260506191303 | 51 | 294 | 4.3 | 4.3 | 0.00 | 0.02 | 0.02 | 74 | 1014.3 |
| 20260506191203 | 51 | 298 | 2.6 | 5.2 | 0.00 | 0.02 | 0.02 | 74 | 1014.3 |
| 20260506191103 | 51 | 296 | 2.6 | 4.3 | 0.00 | 0.02 | 0.02 | 74 | 1014.3 |
| 20260506190933 | 51 | 292 | 4.3 | 5.2 | 0.00 | 0.02 | 0.02 | 73 | 1014.3 |
| 20260506190833 | 51 | 303 | 2.6 | 6.1 | 0.00 | 0.02 | 0.02 | 74 | 1014.3 |
| 20260506190703 | 51 | 305 | 2.6 | 4.3 | 0.00 | 0.02 | 0.02 | 74 | 1014.3 |
| 20260506190533 | 51 | 297 | 2.6 | 5.2 | 0.00 | 0.02 | 0.02 | 74 | 1014.3 |
| 20260506190433 | 51 | 293 | 2.6 | 5.2 | 0.00 | 0.02 | 0.02 | 74 | 1014.3 |
| 20260506190303 | 52 | 284 | 1.7 | 4.3 | 0.00 | 0.02 | 0.02 | 74 | 1014.3 |
| 20260506190133 | 52 | 300 | 4.3 | 4.3 | 0.00 | 0.02 | 0.02 | 73 | 1014.3 |
| 20260506190033 | 52 | 306 | 2.6 | 5.2 | 0.00 | 0.02 | 0.02 | 73 | 1014.3 |
| 20260506185933 | 52 | 286 | 4.3 | 6.1 | 0.00 | 0.02 | 0.02 | 73 | 1014.3 |
| 20260506185833 | 52 | 303 | 1.7 | 2.6 | 0.00 | 0.02 | 0.02 | 74 | 1014.3 |
| 20260506185733 | 52 | 297 | 2.6 | 2.6 | 0.00 | 0.02 | 0.02 | 73 | 1014.3 |
| 20260506185633 | 52 | 274 | 2.6 | 6.1 | 0.00 | 0.02 | 0.02 | 73 | 1014.2 |
| 20260506185503 | 52 | 284 | 1.7 | 2.6 | 0.00 | 0.02 | 0.02 | 73 | 1014.3 |
| 20260506185333 | 51 | 285 | 2.6 | 4.3 | 0.00 | 0.02 | 0.02 | 73 | 1014.2 |
| 20260506185203 | 52 | 300 | 2.6 | 4.3 | 0.00 | 0.02 | 0.02 | 73 | 1014.3 |
| 20260506185033 | 52 | 284 | 4.3 | 6.1 | 0.00 | 0.02 | 0.02 | 73 | 1014.3 |
| 20260506184933 | 52 | 289 | 2.6 | 5.2 | 0.00 | 0.02 | 0.02 | 73 | 1014.3 |
| 20260506184833 | 52 | 283 | 4.3 | 4.3 | 0.00 | 0.02 | 0.02 | 73 | 1014.3 |
| 20260506184703 | 52 | 283 | 2.6 | 4.3 | 0.00 | 0.02 | 0.02 | 73 | 1014.3 |
| 20260506184603 | 52 | 282 | 4.3 | 5.2 | 0.00 | 0.02 | 0.02 | 73 | 1014.3 |
| 20260506184433 | 52 | 286 | 2.6 | 4.3 | 0.00 | 0.02 | 0.02 | 73 | 1014.3 |
| 20260506184333 | 52 | 290 | 4.3 | 5.2 | 0.00 | 0.02 | 0.02 | 73 | 1014.3 |
| 20260506184233 | 52 | 292 | 4.3 | 5.2 | 0.00 | 0.02 | 0.02 | 73 | 1014.3 |
| 20260506184133 | 52 | 293 | 2.6 | 5.2 | 0.00 | 0.02 | 0.02 | 73 | 1014.3 |
| 20260506184033 | 52 | 280 | 2.6 | 4.3 | 0.00 | 0.02 | 0.02 | 73 | 1014.3 |
| 20260506183903 | 52 | 277 | 1.7 | 6.1 | 0.00 | 0.02 | 0.02 | 73 | 1014.2 |
| 20260506183803 | 52 | 274 | 2.6 | 4.3 | 0.00 | 0.02 | 0.02 | 73 | 1014.2 |
| 20260506183703 | 52 | 275 | 2.6 | 2.6 | 0.00 | 0.02 | 0.02 | 73 | 1014.2 |
| 20260506183603 | 52 | 274 | 2.6 | 4.3 | 0.00 | 0.02 | 0.02 | 73 | 1014.3 |
| 20260506183433 | 52 | 272 | 4.3 | 4.3 | 0.00 | 0.02 | 0.02 | 73 | 1014.3 |
| 20260506183303 | 52 | 281 | 2.6 | 4.3 | 0.00 | 0.02 | 0.02 | 73 | 1014.3 |
| 20260506183203 | 52 | 273 | 2.6 | 4.3 | 0.00 | 0.02 | 0.02 | 73 | 1014.3 |
| 20260506183033 | 52 | 275 | 4.3 | 5.2 | 0.00 | 0.02 | 0.02 | 73 | 1014.3 |
| 20260506182933 | 52 | 283 | 4.3 | 5.2 | 0.00 | 0.02 | 0.02 | 73 | 1014.3 |
| 20260506182803 | 52 | 268 | 4.3 | 5.2 | 0.00 | 0.02 | 0.02 | 73 | 1014.2 |
| 20260506182703 | 52 | 279 | 2.6 | 5.2 | 0.00 | 0.02 | 0.02 | 73 | 1014.2 |
| 20260506182603 | 52 | 280 | 2.6 | 4.3 | 0.00 | 0.02 | 0.02 | 73 | 1014.2 |
| 20260506182433 | 52 | 278 | 5.2 | 5.2 | 0.00 | 0.02 | 0.02 | 72 | 1014.2 |
| 20260506182333 | 52 | 281 | 4.3 | 7.0 | 0.00 | 0.02 | 0.02 | 73 | 1014.3 |
| 20260506182203 | 52 | 274 | 2.6 | 4.3 | 0.00 | 0.02 | 0.02 | 72 | 1014.3 |
| 20260506182103 | 52 | 279 | 2.6 | 4.3 | 0.00 | 0.02 | 0.02 | 72 | 1014.2 |
| 20260506181933 | 52 | 267 | 2.6 | 4.3 | 0.00 | 0.02 | 0.02 | 72 | 1014.2 |
| 20260506181833 | 52 | 283 | 4.3 | 5.2 | 0.00 | 0.02 | 0.02 | 72 | 1014.2 |
| 20260506181703 | 52 | 277 | 4.3 | 6.1 | 0.00 | 0.02 | 0.02 | 72 | 1014.2 |
| 20260506181533 | 52 | 276 | 4.3 | 5.2 | 0.00 | 0.02 | 0.02 | 72 | 1014.2 |
| 20260506181403 | 52 | 274 | 4.3 | 5.2 | 0.00 | 0.02 | 0.02 | 72 | 1014.2 |
| 20260506181303 | 52 | 273 | 4.3 | 5.2 | 0.00 | 0.02 | 0.02 | 72 | 1014.2 |
| 20260506181203 | 52 | 272 | 2.6 | 5.2 | 0.00 | 0.02 | 0.02 | 72 | 1014.2 |
| 20260506181033 | 52 | 280 | 2.6 | 5.2 | 0.00 | 0.02 | 0.02 | 72 | 1014.2 |
| 20260506180933 | 52 | 275 | 4.3 | 4.3 | 0.00 | 0.02 | 0.02 | 73 | 1014.2 |
| 20260506180833 | 52 | 275 | 2.6 | 6.1 | 0.00 | 0.02 | 0.02 | 72 | 1014.2 |
| 20260506180703 | 52 | 273 | 4.3 | 5.2 | 0.00 | 0.02 | 0.02 | 72 | 1014.2 |
| 20260506180603 | 52 | 277 | 4.3 | 6.1 | 0.00 | 0.02 | 0.02 | 72 | 1014.2 |
| 20260506180433 | 52 | 286 | 2.6 | 5.2 | 0.00 | 0.02 | 0.02 | 73 | 1014.2 |
| 20260506180303 | 52 | 267 | 2.6 | 4.3 | 0.00 | 0.02 | 0.02 | 72 | 1014.2 |
| 20260506180133 | 52 | 269 | 2.6 | 5.2 | 0.00 | 0.02 | 0.02 | 72 | 1014.1 |
| 20260506180033 | 52 | 277 | 4.3 | 6.1 | 0.00 | 0.02 | 0.02 | 72 | 1014.1 |
| 20260506175933 | 52 | 278 | 4.3 | 6.1 | 0.00 | 0.02 | 0.02 | 72 | 1014.1 |
| 20260506175803 | 52 | 278 | 4.3 | 6.1 | 0.00 | 0.02 | 0.02 | 72 | 1014.1 |
| 20260506175633 | 52 | 288 | 4.3 | 5.2 | 0.00 | 0.02 | 0.02 | 72 | 1014.1 |
| 20260506175533 | 52 | 281 | 2.6 | 5.2 | 0.00 | 0.02 | 0.02 | 72 | 1014.1 |
| 20260506175433 | 52 | 277 | 2.6 | 2.6 | 0.00 | 0.02 | 0.02 | 72 | 1014.1 |
| 20260506175333 | 52 | 253 | 2.6 | 4.3 | 0.00 | 0.02 | 0.02 | 72 | 1014.1 |
| 20260506175203 | 52 | 274 | 2.6 | 4.3 | 0.00 | 0.02 | 0.02 | 72 | 1014.1 |
| 20260506175103 | 52 | 282 | 2.6 | 4.3 | 0.00 | 0.02 | 0.02 | 71 | 1014.0 |
| 20260506174933 | 52 | 278 | 1.7 | 2.6 | 0.00 | 0.02 | 0.02 | 71 | 1014.0 |
| 20260506174833 | 52 | 266 | 1.7 | 2.6 | 0.00 | 0.02 | 0.02 | 71 | 1014.0 |
| 20260506174733 | 52 | 260 | 4.3 | 5.2 | 0.00 | 0.02 | 0.02 | 71 | 1014.0 |
| 20260506174633 | 52 | 249 | 4.3 | 5.2 | 0.00 | 0.02 | 0.02 | 71 | 1013.9 |
| 20260506174503 | 53 | 280 | 2.6 | 4.3 | 0.00 | 0.02 | 0.02 | 70 | 1014.0 |
| 20260506174403 | 53 | 265 | 1.7 | 2.6 | 0.00 | 0.02 | 0.02 | 70 | 1014.0 |
| 20260506174233 | 53 | 225 | 1.7 | 2.6 | 0.00 | 0.02 | 0.02 | 71 | 1014.0 |
| 20260506174103 | 53 | 240 | 1.7 | 4.3 | 0.00 | 0.02 | 0.02 | 71 | 1014.0 |
| 20260506174003 | 53 | 226 | 1.7 | 2.6 | 0.00 | 0.02 | 0.02 | 71 | 1014.0 |
| 20260506173903 | 52 | 240 | 2.6 | 2.6 | 0.00 | 0.02 | 0.02 | 70 | 1014.0 |
| 20260506173803 | 52 | 252 | 2.6 | 2.6 | 0.00 | 0.02 | 0.02 | 70 | 1014.0 |
| 20260506173633 | 53 | 255 | 4.3 | 6.1 | 0.00 | 0.02 | 0.02 | 70 | 1014.0 |
| 20260506173533 | 53 | 263 | 2.6 | 4.3 | 0.00 | 0.02 | 0.02 | 71 | 1014.0 |
| 20260506173403 | 53 | 277 | 2.6 | 2.6 | 0.00 | 0.02 | 0.02 | 70 | 1014.0 |
| 20260506173303 | 53 | 270 | 4.3 | 5.2 | 0.00 | 0.02 | 0.02 | 70 | 1013.9 |
| 20260506173203 | 53 | 270 | 4.3 | 6.1 | 0.00 | 0.02 | 0.02 | 70 | 1013.9 |
| 20260506173103 | 53 | 280 | 2.6 | 5.2 | 0.00 | 0.02 | 0.02 | 69 | 1013.9 |
| 20260506173003 | 53 | 272 | 2.6 | 2.6 | 0.00 | 0.02 | 0.02 | 70 | 1013.9 |
| 20260506172833 | 53 | 281 | 2.6 | 5.2 | 0.00 | 0.02 | 0.02 | 69 | 1013.9 |
| 20260506172703 | 53 | 278 | 2.6 | 4.3 | 0.00 | 0.02 | 0.02 | 69 | 1013.9 |
| 20260506172602 | 53 | 269 | 2.6 | 4.3 | 0.00 | 0.02 | 0.02 | 69 | 1013.9 |
| 20260506172503 | 53 | 274 | 4.3 | 7.0 | 0.00 | 0.02 | 0.02 | 69 | 1013.9 |
| 20260506172402 | 53 | 283 | 2.6 | 5.2 | 0.00 | 0.02 | 0.02 | 69 | 1013.9 |
| 20260506172306 | 53 | 272 | 4.3 | 5.2 | 0.00 | 0.02 | 0.02 | 69 | 1013.9 |
| 20260506172202 | 53 | 282 | 4.3 | 5.2 | 0.00 | 0.02 | 0.02 | 69 | 1013.9 |
| 20260506172102 | 53 | 284 | 4.3 | 6.1 | 0.00 | 0.02 | 0.02 | 69 | 1013.9 |
| 20260506172002 | 53 | 288 | 2.6 | 5.2 | 0.00 | 0.02 | 0.02 | 70 | 1013.9 |
| 20260506171832 | 53 | 276 | 2.6 | 5.2 | 0.00 | 0.02 | 0.02 | 69 | 1013.9 |
| 20260506171732 | 53 | 271 | 2.6 | 4.3 | 0.00 | 0.02 | 0.02 | 69 | 1013.9 |
| 20260506171632 | 53 | 287 | 4.3 | 4.3 | 0.00 | 0.02 | 0.02 | 69 | 1013.8 |
| 20260506171532 | 53 | 291 | 2.6 | 5.2 | 0.00 | 0.02 | 0.02 | 69 | 1013.8 |
| 20260506171432 | 53 | 281 | 4.3 | 4.3 | 0.00 | 0.02 | 0.02 | 69 | 1013.8 |
| 20260506171332 | 53 | 280 | 2.6 | 5.2 | 0.00 | 0.02 | 0.02 | 69 | 1013.8 |
| 20260506171232 | 53 | 272 | 2.6 | 5.2 | 0.00 | 0.02 | 0.02 | 69 | 1013.9 |
| 20260506171132 | 53 | 287 | 4.3 | 4.3 | 0.00 | 0.02 | 0.02 | 69 | 1013.9 |
| 20260506171032 | 53 | 284 | 4.3 | 5.2 | 0.00 | 0.02 | 0.02 | 69 | 1013.9 |
| 20260506170932 | 53 | 289 | 2.6 | 6.1 | 0.00 | 0.02 | 0.02 | 70 | 1013.8 |
| 20260506170832 | 53 | 268 | 1.7 | 5.2 | 0.00 | 0.02 | 0.02 | 70 | 1013.8 |
| 20260506170732 | 53 | 247 | 2.6 | 4.3 | 0.00 | 0.02 | 0.02 | 70 | 1013.8 |
| 20260506170632 | 53 | 264 | 2.6 | 2.6 | 0.00 | 0.02 | 0.02 | 69 | 1013.8 |
| 20260506170532 | 53 | 259 | 4.3 | 6.1 | 0.00 | 0.02 | 0.02 | 70 | 1013.8 |
| 20260506170432 | 54 | 254 | 2.6 | 6.1 | 0.00 | 0.02 | 0.02 | 70 | 1013.8 |
| 20260506170332 | 54 | 263 | 2.6 | 5.2 | 0.00 | 0.02 | 0.02 | 70 | 1013.8 |
| 20260506170232 | 54 | 272 | 2.6 | 4.3 | 0.00 | 0.02 | 0.02 | 70 | 1013.9 |
| 20260506170131 | 54 | 262 | 1.7 | 4.3 | 0.00 | 0.02 | 0.02 | 69 | 1013.9 |
| 20260506170031 | 53 | 269 | 2.6 | 2.6 | 0.00 | 0.02 | 0.02 | 69 | 1013.8 |
| 20260506165931 | 54 | 286 | 4.3 | 4.3 | 0.00 | 0.02 | 0.02 | 68 | 1013.8 |
| 20260506165831 | 54 | 275 | 4.3 | 5.2 | 0.00 | 0.02 | 0.02 | 69 | 1013.8 |
| 20260506165731 | 54 | 285 | 2.6 | 4.3 | 0.00 | 0.02 | 0.02 | 69 | 1013.8 |
| 20260506165631 | 54 | 274 | 4.3 | 4.3 | 0.00 | 0.02 | 0.02 | 69 | 1013.8 |
| 20260506165531 | 54 | 272 | 2.6 | 5.2 | 0.00 | 0.02 | 0.02 | 69 | 1013.8 |
| 20260506165431 | 54 | 273 | 4.3 | 5.2 | 0.00 | 0.02 | 0.02 | 68 | 1013.9 |
| 20260506165331 | 54 | 274 | 4.3 | 5.2 | 0.00 | 0.02 | 0.02 | 68 | 1013.9 |
| 20260506165231 | 54 | 277 | 4.3 | 6.1 | 0.00 | 0.02 | 0.02 | 67 | 1013.8 |
| 20260506165131 | 54 | 276 | 2.6 | 6.1 | 0.00 | 0.02 | 0.02 | 67 | 1013.9 |
| 20260506165031 | 54 | 268 | 2.6 | 5.2 | 0.00 | 0.02 | 0.02 | 67 | 1013.8 |
| 20260506164931 | 54 | 265 | 2.6 | 4.3 | 0.00 | 0.02 | 0.02 | 67 | 1013.8 |
| 20260506164831 | 54 | 219 | 2.6 | 2.6 | 0.00 | 0.02 | 0.02 | 67 | 1013.8 |
| 20260506164731 | 54 | 221 | 1.7 | 2.6 | 0.00 | 0.02 | 0.02 | 68 | 1013.8 |
| 20260506164630 | 54 | 223 | 2.6 | 4.3 | 0.00 | 0.02 | 0.02 | 68 | 1013.8 |
| 20260506164500 | 54 | 258 | 1.7 | 4.3 | 0.00 | 0.02 | 0.02 | 67 | 1013.8 |
| 20260506164400 | 54 | 257 | 4.3 | 4.3 | 0.00 | 0.02 | 0.02 | 67 | 1013.9 |
| 20260506164301 | 54 | 259 | 2.6 | 5.2 | 0.00 | 0.02 | 0.02 | 67 | 1013.9 |
| 20260506164200 | 54 | 206 | 2.6 | 4.3 | 0.00 | 0.02 | 0.02 | 68 | 1013.8 |
| 20260506164100 | 54 | 203 | 4.3 | 4.3 | 0.00 | 0.02 | 0.02 | 68 | 1013.8 |
| 20260506164000 | 54 | 263 | 4.3 | 6.1 | 0.00 | 0.02 | 0.02 | 68 | 1013.9 |
| 20260506163900 | 54 | 289 | 4.3 | 5.2 | 0.00 | 0.02 | 0.02 | 68 | 1013.9 |
| 20260506163800 | 54 | 276 | 4.3 | 5.2 | 0.00 | 0.02 | 0.02 | 68 | 1013.9 |
| 20260506163700 | 54 | 277 | 4.3 | 6.1 | 0.00 | 0.02 | 0.02 | 68 | 1013.9 |
| 20260506163600 | 54 | 280 | 4.3 | 5.2 | 0.00 | 0.02 | 0.02 | 67 | 1013.9 |
| 20260506163500 | 54 | 271 | 2.6 | 5.2 | 0.00 | 0.02 | 0.02 | 68 | 1013.8 |
| 20260506163400 | 54 | 274 | 2.6 | 4.3 | 0.00 | 0.02 | 0.02 | 68 | 1013.8 |
| 20260506163300 | 54 | 235 | 2.6 | 4.3 | 0.00 | 0.02 | 0.02 | 68 | 1013.9 |
| 20260506163159 | 54 | 250 | 4.3 | 5.2 | 0.00 | 0.02 | 0.02 | 68 | 1013.9 |
| 20260506163059 | 54 | 249 | 5.2 | 6.1 | 0.00 | 0.02 | 0.02 | 67 | 1013.9 |
| 20260506162959 | 54 | 266 | 4.3 | 5.2 | 0.00 | 0.02 | 0.02 | 67 | 1013.9 |
| 20260506162859 | 54 | 280 | 5.2 | 7.0 | 0.00 | 0.02 | 0.02 | 67 | 1013.9 |
| 20260506162759 | 54 | 285 | 4.3 | 6.1 | 0.00 | 0.02 | 0.02 | 67 | 1013.9 |
| 20260506162659 | 54 | 266 | 2.6 | 5.2 | 0.00 | 0.02 | 0.02 | 67 | 1013.9 |
| 20260506162559 | 54 | 247 | 2.6 | 4.3 | 0.00 | 0.02 | 0.02 | 68 | 1013.9 |
| 20260506162459 | 54 | 256 | 2.6 | 4.3 | 0.00 | 0.02 | 0.02 | 68 | 1013.8 |
| 20260506162359 | 54 | 278 | 2.6 | 4.3 | 0.00 | 0.02 | 0.02 | 67 | 1013.9 |
| 20260506162259 | 54 | 235 | 2.6 | 5.2 | 0.00 | 0.02 | 0.02 | 67 | 1013.9 |
| 20260506162159 | 54 | 265 | 4.3 | 5.2 | 0.00 | 0.02 | 0.02 | 66 | 1013.9 |
| 20260506162059 | 54 | 256 | 4.3 | 6.1 | 0.00 | 0.02 | 0.02 | 67 | 1013.9 |
| 20260506161959 | 54 | 263 | 4.3 | 5.2 | 0.00 | 0.02 | 0.02 | 67 | 1013.8 |
| 20260506161859 | 54 | 275 | 2.6 | 5.2 | 0.00 | 0.02 | 0.02 | 67 | 1013.8 |
| 20260506161758 | 54 | 264 | 4.3 | 4.3 | 0.00 | 0.02 | 0.02 | 67 | 1013.8 |
| 20260506161659 | 54 | 262 | 4.3 | 6.1 | 0.00 | 0.02 | 0.02 | 67 | 1013.8 |
| 20260506161558 | 54 | 259 | 4.3 | 7.0 | 0.00 | 0.02 | 0.02 | 67 | 1013.9 |
| 20260506161458 | 54 | 260 | 4.3 | 5.2 | 0.00 | 0.02 | 0.02 | 66 | 1013.9 |
| 20260506161358 | 54 | 260 | 4.3 | 6.1 | 0.00 | 0.02 | 0.02 | 67 | 1013.8 |
| 20260506161258 | 54 | 274 | 2.6 | 4.3 | 0.00 | 0.02 | 0.02 | 67 | 1013.8 |
| 20260506161158 | 54 | 282 | 2.6 | 5.2 | 0.00 | 0.02 | 0.02 | 67 | 1013.9 |
| 20260506161058 | 54 | 274 | 2.6 | 4.3 | 0.00 | 0.02 | 0.02 | 68 | 1013.9 |
| 20260506160958 | 54 | 277 | 2.6 | 5.2 | 0.00 | 0.02 | 0.02 | 67 | 1013.9 |
| 20260506160858 | 54 | 267 | 4.3 | 5.2 | 0.00 | 0.02 | 0.02 | 68 | 1013.9 |
| 20260506160758 | 54 | 272 | 2.6 | 5.2 | 0.00 | 0.02 | 0.02 | 68 | 1013.9 |
| 20260506160658 | 54 | 263 | 4.3 | 4.3 | 0.00 | 0.02 | 0.02 | 67 | 1013.9 |
| 20260506160558 | 54 | 252 | 4.3 | 6.1 | 0.00 | 0.02 | 0.02 | 66 | 1013.9 |
| 20260506160458 | 54 | 275 | 4.3 | 5.2 | 0.00 | 0.02 | 0.02 | 66 | 1013.9 |
| 20260506160358 | 54 | 260 | 4.3 | 6.1 | 0.00 | 0.02 | 0.02 | 67 | 1013.9 |
| 20260506160257 | 54 | 271 | 2.6 | 5.2 | 0.00 | 0.02 | 0.02 | 66 | 1013.8 |
| 20260506160157 | 54 | 278 | 5.2 | 6.1 | 0.00 | 0.02 | 0.02 | 66 | 1013.9 |
| 20260506160057 | 54 | 293 | 5.2 | 6.1 | 0.00 | 0.02 | 0.02 | 66 | 1013.9 |
| 20260506155957 | 54 | 292 | 5.2 | 5.2 | 0.00 | 0.02 | 0.02 | 65 | 1013.9 |
| 20260506155857 | 55 | 281 | 4.3 | 6.1 | 0.00 | 0.02 | 0.02 | 66 | 1013.9 |
| 20260506155757 | 55 | 276 | 4.3 | 7.0 | 0.00 | 0.02 | 0.02 | 66 | 1013.9 |
| 20260506155657 | 55 | 275 | 2.6 | 5.2 | 0.00 | 0.02 | 0.02 | 66 | 1013.9 |
| 20260506155557 | 55 | 284 | 5.2 | 6.1 | 0.00 | 0.02 | 0.02 | 65 | 1013.9 |
| 20260506155457 | 55 | 291 | 4.3 | 6.1 | 0.00 | 0.02 | 0.02 | 65 | 1013.9 |
| 20260506155357 | 55 | 280 | 4.3 | 6.1 | 0.00 | 0.02 | 0.02 | 65 | 1013.9 |
| 20260506155257 | 55 | 265 | 4.3 | 5.2 | 0.00 | 0.02 | 0.02 | 65 | 1013.9 |
| 20260506155157 | 55 | 275 | 2.6 | 5.2 | 0.00 | 0.02 | 0.02 | 66 | 1013.9 |
| 20260506155057 | 55 | 270 | 1.7 | 4.3 | 0.00 | 0.02 | 0.02 | 66 | 1013.9 |
| 20260506154956 | 55 | 260 | 1.7 | 2.6 | 0.00 | 0.02 | 0.02 | 66 | 1014.0 |
| 20260506154856 | 54 | 228 | 1.7 | 2.6 | 0.00 | 0.02 | 0.02 | 67 | 1014.0 |
| 20260506154756 | 54 | 240 | 4.3 | 4.3 | 0.00 | 0.02 | 0.02 | 68 | 1014.0 |
| 20260506154656 | 54 | 253 | 2.6 | 6.1 | 0.00 | 0.02 | 0.02 | 68 | 1014.0 |
| 20260506154556 | 54 | 246 | 2.6 | 4.3 | 0.00 | 0.02 | 0.02 | 68 | 1014.0 |
| 20260506154456 | 54 | 264 | 4.3 | 5.2 | 0.00 | 0.02 | 0.02 | 68 | 1014.0 |
| 20260506154356 | 54 | 287 | 2.6 | 5.2 | 0.00 | 0.02 | 0.02 | 68 | 1014.0 |
| 20260506154256 | 54 | 275 | 4.3 | 5.2 | 0.00 | 0.02 | 0.02 | 69 | 1014.0 |
| 20260506154156 | 53 | 283 | 4.3 | 5.2 | 0.00 | 0.02 | 0.02 | 68 | 1013.9 |
| 20260506154056 | 53 | 257 | 4.3 | 7.0 | 0.00 | 0.02 | 0.02 | 68 | 1014.0 |
| 20260506153956 | 53 | 277 | 5.2 | 6.1 | 0.00 | 0.02 | 0.02 | 67 | 1014.0 |
| 20260506153856 | 53 | 291 | 4.3 | 6.1 | 0.00 | 0.02 | 0.02 | 67 | 1013.9 |
| 20260506153756 | 54 | 278 | 5.2 | 6.1 | 0.00 | 0.02 | 0.02 | 67 | 1014.0 |
| 20260506153656 | 54 | 280 | 4.3 | 7.0 | 0.00 | 0.02 | 0.02 | 68 | 1014.0 |
| 20260506153556 | 54 | 281 | 4.3 | 5.2 | 0.00 | 0.02 | 0.02 | 68 | 1014.0 |
| 20260506153455 | 54 | 282 | 4.3 | 5.2 | 0.00 | 0.02 | 0.02 | 68 | 1014.0 |
| 20260506153355 | 54 | 279 | 4.3 | 6.1 | 0.00 | 0.02 | 0.02 | 68 | 1014.0 |
| 20260506153255 | 53 | 285 | 2.6 | 5.2 | 0.00 | 0.02 | 0.02 | 69 | 1014.0 |
| 20260506153155 | 53 | 281 | 2.6 | 2.6 | 0.00 | 0.02 | 0.02 | 68 | 1014.0 |
| 20260506153055 | 53 | 266 | 4.3 | 7.0 | 0.00 | 0.02 | 0.02 | 68 | 1013.9 |
| 20260506152955 | 53 | 281 | 4.3 | 6.1 | 0.00 | 0.02 | 0.02 | 68 | 1013.9 |
| 20260506152855 | 53 | 290 | 2.6 | 6.1 | 0.00 | 0.02 | 0.02 | 68 | 1013.9 |
| 20260506152755 | 53 | 270 | 2.6 | 5.2 | 0.00 | 0.02 | 0.02 | 68 | 1014.0 |
| 20260506152655 | 53 | 269 | 2.6 | 4.3 | 0.00 | 0.02 | 0.02 | 68 | 1013.9 |
| 20260506152555 | 53 | 284 | 4.3 | 5.2 | 0.00 | 0.02 | 0.02 | 68 | 1013.9 |
| 20260506152455 | 53 | 281 | 4.3 | 6.1 | 0.00 | 0.02 | 0.02 | 69 | 1013.9 |
| 20260506152354 | 53 | 284 | 4.3 | 6.1 | 0.00 | 0.02 | 0.02 | 69 | 1014.0 |
| 20260506152254 | 53 | 285 | 4.3 | 5.2 | 0.00 | 0.02 | 0.02 | 69 | 1014.0 |
| 20260506152154 | 53 | 287 | 4.3 | 6.1 | 0.00 | 0.02 | 0.02 | 69 | 1013.9 |
| 20260506152054 | 53 | 276 | 4.3 | 5.2 | 0.00 | 0.02 | 0.02 | 69 | 1014.0 |
| 20260506151954 | 53 | 281 | 4.3 | 5.2 | 0.00 | 0.02 | 0.02 | 69 | 1014.0 |
| 20260506151854 | 53 | 282 | 5.2 | 7.0 | 0.00 | 0.02 | 0.02 | 68 | 1014.0 |
| 20260506151754 | 53 | 279 | 5.2 | 6.1 | 0.00 | 0.02 | 0.02 | 68 | 1014.0 |
| 20260506151654 | 53 | 283 | 5.2 | 6.1 | 0.00 | 0.02 | 0.02 | 68 | 1014.0 |
| 20260506151554 | 53 | 286 | 4.3 | 5.2 | 0.00 | 0.02 | 0.02 | 69 | 1014.0 |
| 20260506151424 | 53 | 277 | 4.3 | 5.2 | 0.00 | 0.02 | 0.02 | 68 | 1014.0 |
| 20260506151324 | 53 | 278 | 4.3 | 6.1 | 0.00 | 0.02 | 0.02 | 68 | 1013.9 |
| 20260506151224 | 53 | 288 | 4.3 | 6.1 | 0.00 | 0.02 | 0.02 | 68 | 1013.9 |
| 20260506151124 | 53 | 275 | 4.3 | 5.2 | 0.00 | 0.02 | 0.02 | 68 | 1014.0 |
| 20260506151024 | 53 | 262 | 4.3 | 6.1 | 0.00 | 0.02 | 0.02 | 68 | 1014.0 |
| 20260506150924 | 53 | 271 | 2.6 | 7.0 | 0.00 | 0.02 | 0.02 | 69 | 1014.0 |
| 20260506150824 | 53 | 277 | 4.3 | 2.6 | 0.00 | 0.02 | 0.02 | 69 | 1014.0 |
| 20260506150724 | 53 | 286 | 4.3 | 6.1 | 0.00 | 0.02 | 0.02 | 69 | 1014.0 |
| 20260506150624 | 53 | 282 | 4.3 | 6.1 | 0.00 | 0.02 | 0.02 | 68 | 1014.0 |
| 20260506150523 | 53 | 275 | 4.3 | 6.1 | 0.00 | 0.02 | 0.02 | 69 | 1014.0 |
| 20260506150423 | 53 | 268 | 4.3 | 5.2 | 0.00 | 0.02 | 0.02 | 69 | 1014.0 |
| 20260506150323 | 53 | 277 | 4.3 | 6.1 | 0.00 | 0.02 | 0.02 | 69 | 1014.0 |
| 20260506150153 | 53 | 282 | 5.2 | 6.1 | 0.00 | 0.02 | 0.02 | 69 | 1014.0 |
| 20260506150053 | 53 | 281 | 2.6 | 6.1 | 0.00 | 0.02 | 0.02 | 70 | 1014.0 |
| 20260506145953 | 53 | 275 | 2.6 | 4.3 | 0.00 | 0.02 | 0.02 | 70 | 1014.0 |
| 20260506145853 | 53 | 284 | 4.3 | 5.2 | 0.00 | 0.02 | 0.02 | 69 | 1014.0 |
| 20260506145753 | 53 | 278 | 4.3 | 5.2 | 0.00 | 0.02 | 0.02 | 69 | 1014.0 |
| 20260506145653 | 53 | 284 | 4.3 | 7.0 | 0.00 | 0.02 | 0.02 | 70 | 1014.1 |
| 20260506145553 | 53 | 282 | 4.3 | 6.1 | 0.00 | 0.02 | 0.02 | 69 | 1014.0 |
| 20260506145453 | 53 | 277 | 5.2 | 6.1 | 0.00 | 0.02 | 0.02 | 69 | 1014.0 |
| 20260506145353 | 53 | 281 | 5.2 | 5.2 | 0.00 | 0.02 | 0.02 | 69 | 1014.1 |
| 20260506145253 | 53 | 281 | 4.3 | 5.2 | 0.00 | 0.02 | 0.02 | 69 | 1014.1 |
| 20260506145152 | 53 | 276 | 4.3 | 6.1 | 0.00 | 0.02 | 0.02 | 69 | 1014.1 |
| 20260506145052 | 53 | 281 | 4.3 | 5.2 | 0.00 | 0.02 | 0.02 | 69 | 1014.1 |
| 20260506144952 | 53 | 291 | 4.3 | 5.2 | 0.00 | 0.02 | 0.02 | 69 | 1014.1 |
| 20260506144852 | 53 | 289 | 4.3 | 6.1 | 0.00 | 0.02 | 0.02 | 70 | 1014.1 |
| 20260506144752 | 53 | 280 | 4.3 | 6.1 | 0.00 | 0.02 | 0.02 | 69 | 1014.1 |
| 20260506144653 | 53 | 287 | 4.3 | 5.2 | 0.00 | 0.02 | 0.02 | 70 | 1014.1 |
| 20260506144552 | 53 | 281 | 5.2 | 7.0 | 0.00 | 0.02 | 0.02 | 69 | 1014.1 |
| 20260506144452 | 53 | 282 | 5.2 | 7.0 | 0.00 | 0.02 | 0.02 | 69 | 1014.1 |
| 20260506144352 | 53 | 292 | 4.3 | 5.2 | 0.00 | 0.02 | 0.02 | 70 | 1014.1 |
| 20260506144252 | 53 | 288 | 4.3 | 4.3 | 0.00 | 0.02 | 0.02 | 69 | 1014.1 |
| 20260506144152 | 53 | 283 | 5.2 | 6.1 | 0.00 | 0.02 | 0.02 | 69 | 1014.1 |
| 20260506144052 | 53 | 284 | 4.3 | 6.1 | 0.00 | 0.02 | 0.02 | 69 | 1014.1 |
| 20260506143952 | 53 | 285 | 5.2 | 6.1 | 0.00 | 0.02 | 0.02 | 69 | 1014.2 |
| 20260506143852 | 53 | 287 | 4.3 | 7.0 | 0.00 | 0.02 | 0.02 | 69 | 1014.1 |
| 20260506143751 | 53 | 287 | 5.2 | 6.1 | 0.00 | 0.02 | 0.02 | 69 | 1014.1 |
| 20260506143621 | 53 | 288 | 5.2 | 6.1 | 0.00 | 0.02 | 0.02 | 69 | 1014.1 |
| 20260506143521 | 53 | 287 | 4.3 | 6.1 | 0.00 | 0.02 | 0.02 | 69 | 1014.2 |
| 20260506143421 | 53 | 278 | 4.3 | 7.0 | 0.00 | 0.02 | 0.02 | 69 | 1014.2 |
| 20260506143321 | 53 | 284 | 5.2 | 6.1 | 0.00 | 0.02 | 0.02 | 69 | 1014.2 |
| 20260506143221 | 53 | 290 | 5.2 | 6.1 | 0.00 | 0.02 | 0.02 | 69 | 1014.2 |
| 20260506143121 | 53 | 296 | 4.3 | 7.0 | 0.00 | 0.02 | 0.02 | 69 | 1014.2 |
| 20260506143021 | 53 | 261 | 4.3 | 4.3 | 0.00 | 0.02 | 0.02 | 69 | 1014.1 |
| 20260506142921 | 53 | 274 | 4.3 | 5.2 | 0.00 | 0.02 | 0.02 | 69 | 1014.1 |
| 20260506142821 | 53 | 284 | 5.2 | 6.1 | 0.00 | 0.02 | 0.02 | 69 | 1014.1 |
| 20260506142721 | 53 | 289 | 4.3 | 7.0 | 0.00 | 0.02 | 0.02 | 69 | 1014.1 |
| 20260506142621 | 53 | 287 | 4.3 | 5.2 | 0.00 | 0.02 | 0.02 | 69 | 1014.1 |
| 20260506142521 | 53 | 276 | 4.3 | 5.2 | 0.00 | 0.02 | 0.02 | 68 | 1014.1 |
| 20260506142421 | 53 | 287 | 5.2 | 7.0 | 0.00 | 0.02 | 0.02 | 68 | 1014.1 |
| 20260506142321 | 53 | 284 | 4.3 | 6.1 | 0.00 | 0.02 | 0.02 | 67 | 1014.1 |
| 20260506142221 | 53 | 283 | 4.3 | 5.2 | 0.00 | 0.02 | 0.02 | 67 | 1014.2 |
| 20260506142121 | 53 | 264 | 2.6 | 6.1 | 0.00 | 0.02 | 0.02 | 68 | 1014.1 |
| 20260506142020 | 53 | 293 | 4.3 | 5.2 | 0.00 | 0.02 | 0.02 | 67 | 1014.1 |
| 20260506141920 | 53 | 283 | 4.3 | 6.1 | 0.00 | 0.02 | 0.02 | 68 | 1014.2 |
| 20260506141820 | 53 | 285 | 4.3 | 5.2 | 0.00 | 0.02 | 0.02 | 67 | 1014.1 |
| 20260506141720 | 53 | 288 | 5.2 | 6.1 | 0.00 | 0.02 | 0.02 | 67 | 1014.1 |
| 20260506141620 | 53 | 293 | 4.3 | 6.1 | 0.00 | 0.02 | 0.02 | 67 | 1014.2 |
| 20260506141520 | 53 | 289 | 2.6 | 4.3 | 0.00 | 0.02 | 0.02 | 68 | 1014.2 |
| 20260506141420 | 53 | 275 | 2.6 | 5.2 | 0.00 | 0.02 | 0.02 | 68 | 1014.2 |
| 20260506141320 | 53 | 271 | 4.3 | 6.1 | 0.00 | 0.02 | 0.02 | 68 | 1014.1 |
| 20260506141220 | 53 | 282 | 4.3 | 6.1 | 0.00 | 0.02 | 0.02 | 69 | 1014.2 |
| 20260506141120 | 53 | 262 | 4.3 | 5.2 | 0.00 | 0.02 | 0.02 | 68 | 1014.1 |
| 20260506141020 | 53 | 266 | 4.3 | 5.2 | 0.00 | 0.02 | 0.02 | 68 | 1014.1 |
| 20260506140920 | 53 | 274 | 2.6 | 6.1 | 0.00 | 0.02 | 0.02 | 69 | 1014.1 |
| 20260506140820 | 53 | 252 | 4.3 | 5.2 | 0.00 | 0.02 | 0.02 | 68 | 1014.1 |
| 20260506140720 | 53 | 255 | 4.3 | 6.1 | 0.00 | 0.02 | 0.02 | 68 | 1014.1 |
| 20260506140620 | 53 | 275 | 4.3 | 4.3 | 0.00 | 0.02 | 0.02 | 68 | 1014.1 |
| 20260506140520 | 53 | 273 | 2.6 | 6.1 | 0.00 | 0.02 | 0.02 | 68 | 1014.1 |
| 20260506140420 | 53 | 261 | 2.6 | 5.2 | 0.00 | 0.02 | 0.02 | 68 | 1014.1 |
| 20260506140319 | 53 | 261 | 4.3 | 4.3 | 0.00 | 0.02 | 0.02 | 68 | 1014.1 |